| time (UTC) | temp C | wind direction | speed KPH | gust KPH | rain 1hr cm | rain 24hr cm | rain mn cm | humidity % | barometer mb |
| 20260504221101 | 16 | 134 | 3.2 | 4.8 | 0.00 | 0.00 | 0.00 | 45 | 934.2 |
| 20260504221001 | 16 | 130 | 4.8 | 4.8 | 0.00 | 0.00 | 0.00 | 45 | 934.0 |
| 20260504220901 | 16 | 144 | 3.2 | 4.8 | 0.00 | 0.00 | 0.00 | 45 | 934.1 |
| 20260504220801 | 16 | 136 | 3.2 | 6.4 | 0.00 | 0.00 | 0.00 | 44 | 934.2 |
| 20260504220701 | 16 | 122 | 4.8 | 6.4 | 0.00 | 0.00 | 0.00 | 45 | 934.2 |
| 20260504220601 | 16 | 121 | 3.2 | 4.8 | 0.00 | 0.00 | 0.00 | 45 | 934.1 |
| 20260504220500 | 16 | 120 | 3.2 | 4.8 | 0.00 | 0.00 | 0.00 | 45 | 934.0 |
| 20260504220401 | 16 | 126 | 4.8 | 4.8 | 0.00 | 0.00 | 0.00 | 44 | 934.0 |
| 20260504220301 | 16 | 144 | 4.8 | 6.4 | 0.00 | 0.00 | 0.00 | 44 | 933.9 |
| 20260504220200 | 16 | 114 | 4.8 | 4.8 | 0.00 | 0.00 | 0.00 | 44 | 934.1 |
| 20260504220101 | 16 | 129 | 4.8 | 6.4 | 0.00 | 0.00 | 0.00 | 45 | 934.0 |
| 20260504220002 | 16 | 131 | 4.8 | 6.4 | 0.00 | 0.00 | 0.00 | 45 | 934.0 |
| 20260504215901 | 16 | 125 | 4.8 | 4.8 | 0.00 | 0.00 | 0.00 | 45 | 934.1 |
| 20260504215801 | 16 | 126 | 4.8 | 4.8 | 0.00 | 0.00 | 0.00 | 45 | 934.1 |
| 20260504215701 | 16 | 145 | 4.8 | 6.4 | 0.00 | 0.00 | 0.00 | 45 | 934.2 |
| 20260504215600 | 16 | 119 | 4.8 | 4.8 | 0.00 | 0.00 | 0.00 | 45 | 934.0 |
| 20260504215501 | 16 | 138 | 4.8 | 6.4 | 0.00 | 0.00 | 0.00 | 45 | 934.1 |
| 20260504215406 | 16 | 138 | 4.8 | 6.4 | 0.00 | 0.00 | 0.00 | 45 | 934.3 |
| 20260504215300 | 16 | 129 | 4.8 | 6.4 | 0.00 | 0.00 | 0.00 | 45 | 934.3 |
| 20260504215201 | 16 | 120 | 4.8 | 6.4 | 0.00 | 0.00 | 0.00 | 45 | 934.2 |
| 20260504215101 | 16 | 152 | 4.8 | 6.4 | 0.00 | 0.00 | 0.00 | 45 | 934.0 |
| 20260504215001 | 16 | 155 | 4.8 | 6.4 | 0.00 | 0.00 | 0.00 | 45 | 934.3 |
| 20260504214901 | 16 | 131 | 3.2 | 4.8 | 0.00 | 0.00 | 0.00 | 46 | 934.4 |
| 20260504214801 | 16 | 111 | 4.8 | 4.8 | 0.00 | 0.00 | 0.00 | 46 | 934.4 |
| 20260504214701 | 16 | 130 | 4.8 | 4.8 | 0.00 | 0.00 | 0.00 | 46 | 934.3 |
| 20260504214601 | 16 | 138 | 3.2 | 6.4 | 0.00 | 0.00 | 0.00 | 46 | 934.3 |
| 20260504214501 | 16 | 125 | 4.8 | 6.4 | 0.00 | 0.00 | 0.00 | 46 | 934.5 |
| 20260504214400 | 16 | 122 | 3.2 | 4.8 | 0.00 | 0.00 | 0.00 | 46 | 934.3 |
| 20260504214300 | 16 | 124 | 3.2 | 4.8 | 0.00 | 0.00 | 0.00 | 46 | 934.5 |
| 20260504214201 | 16 | 129 | 3.2 | 4.8 | 0.00 | 0.00 | 0.00 | 46 | 934.3 |
| 20260504214101 | 16 | 140 | 3.2 | 4.8 | 0.00 | 0.00 | 0.00 | 46 | 934.4 |
| 20260504214001 | 16 | 129 | 4.8 | 4.8 | 0.00 | 0.00 | 0.00 | 46 | 934.7 |
| 20260504213901 | 16 | 136 | 3.2 | 4.8 | 0.00 | 0.00 | 0.00 | 46 | 934.6 |
| 20260504213800 | 16 | 131 | 4.8 | 4.8 | 0.00 | 0.00 | 0.00 | 46 | 934.2 |
| 20260504213701 | 16 | 122 | 3.2 | 4.8 | 0.00 | 0.00 | 0.00 | 45 | 934.3 |
| 20260504213602 | 16 | 130 | 4.8 | 6.4 | 0.00 | 0.00 | 0.00 | 45 | 934.3 |
| 20260504213501 | 16 | 120 | 4.8 | 4.8 | 0.00 | 0.00 | 0.00 | 46 | 934.3 |
| 20260504213401 | 16 | 127 | 3.2 | 4.8 | 0.00 | 0.00 | 0.00 | 46 | 934.4 |
| 20260504213301 | 16 | 163 | 3.2 | 4.8 | 0.00 | 0.00 | 0.00 | 45 | 934.3 |
| 20260504213201 | 16 | 136 | 3.2 | 4.8 | 0.00 | 0.00 | 0.00 | 45 | 934.4 |
| 20260504213101 | 16 | 126 | 3.2 | 4.8 | 0.00 | 0.00 | 0.00 | 45 | 934.5 |
| 20260504213000 | 16 | 147 | 3.2 | 4.8 | 0.00 | 0.00 | 0.00 | 45 | 934.4 |
| 20260504212901 | 16 | 138 | 3.2 | 6.4 | 0.00 | 0.00 | 0.00 | 45 | 934.4 |
| 20260504212801 | 16 | 141 | 4.8 | 6.4 | 0.00 | 0.00 | 0.00 | 45 | 934.3 |
| 20260504212701 | 17 | 141 | 4.8 | 4.8 | 0.00 | 0.00 | 0.00 | 44 | 934.5 |
| 20260504212600 | 17 | 171 | 3.2 | 4.8 | 0.00 | 0.00 | 0.00 | 45 | 934.5 |
| 20260504212502 | 17 | 110 | 3.2 | 4.8 | 0.00 | 0.00 | 0.00 | 44 | 934.6 |
| 20260504212401 | 17 | 149 | 3.2 | 6.4 | 0.00 | 0.00 | 0.00 | 44 | 934.3 |
| 20260504212301 | 16 | 155 | 4.8 | 6.4 | 0.00 | 0.00 | 0.00 | 44 | 934.6 |
| 20260504212200 | 16 | 131 | 4.8 | 6.4 | 0.00 | 0.00 | 0.00 | 44 | 934.7 |
| 20260504212101 | 16 | 141 | 3.2 | 4.8 | 0.00 | 0.00 | 0.00 | 45 | 934.3 |
| 20260504212001 | 16 | 142 | 3.2 | 6.4 | 0.00 | 0.00 | 0.00 | 45 | 934.4 |
| 20260504211905 | 16 | 142 | 3.2 | 6.4 | 0.00 | 0.00 | 0.00 | 45 | 934.4 |
| 20260504211801 | 16 | 145 | 3.2 | 4.8 | 0.00 | 0.00 | 0.00 | 45 | 934.5 |
| 20260504211701 | 16 | 145 | 3.2 | 4.8 | 0.00 | 0.00 | 0.00 | 45 | 934.5 |
| 20260504211601 | 17 | 141 | 4.8 | 4.8 | 0.00 | 0.00 | 0.00 | 45 | 934.5 |
| 20260504211501 | 17 | 160 | 3.2 | 4.8 | 0.00 | 0.00 | 0.00 | 45 | 934.5 |
| 20260504211401 | 17 | 137 | 4.8 | 6.4 | 0.00 | 0.00 | 0.00 | 45 | 934.5 |
| 20260504211301 | 17 | 123 | 4.8 | 6.4 | 0.00 | 0.00 | 0.00 | 44 | 934.5 |
| 20260504211200 | 17 | 147 | 4.8 | 4.8 | 0.00 | 0.00 | 0.00 | 45 | 934.6 |
| 20260504211101 | 17 | 160 | 3.2 | 6.4 | 0.00 | 0.00 | 0.00 | 45 | 934.5 |
| 20260504211000 | 17 | 130 | 4.8 | 6.4 | 0.00 | 0.00 | 0.00 | 44 | 934.6 |
| 20260504210901 | 17 | 128 | 4.8 | 6.4 | 0.00 | 0.00 | 0.00 | 44 | 934.5 |
| 20260504210801 | 17 | 139 | 4.8 | 6.4 | 0.00 | 0.00 | 0.00 | 45 | 934.4 |
| 20260504210701 | 17 | 129 | 6.4 | 6.4 | 0.00 | 0.00 | 0.00 | 44 | 934.3 |
| 20260504210601 | 17 | 132 | 4.8 | 6.4 | 0.00 | 0.00 | 0.00 | 45 | 934.5 |
| 20260504210501 | 17 | 129 | 4.8 | 8.0 | 0.00 | 0.00 | 0.00 | 45 | 934.5 |
| 20260504210401 | 17 | 131 | 4.8 | 6.4 | 0.00 | 0.00 | 0.00 | 45 | 934.6 |
| 20260504210301 | 17 | 166 | 4.8 | 6.4 | 0.00 | 0.00 | 0.00 | 45 | 934.6 |
| 20260504210201 | 17 | 152 | 3.2 | 4.8 | 0.00 | 0.00 | 0.00 | 46 | 934.4 |
| 20260504210100 | 17 | 130 | 3.2 | 6.4 | 0.00 | 0.00 | 0.00 | 46 | 934.7 |
| 20260504210001 | 17 | 128 | 4.8 | 6.4 | 0.00 | 0.00 | 0.00 | 44 | 934.4 |
| 20260504205901 | 17 | 139 | 6.4 | 6.4 | 0.00 | 0.00 | 0.00 | 44 | 934.6 |
| 20260504205801 | 17 | 142 | 4.8 | 6.4 | 0.00 | 0.00 | 0.00 | 45 | 934.5 |
| 20260504205701 | 17 | 124 | 4.8 | 6.4 | 0.00 | 0.00 | 0.00 | 45 | 934.7 |
| 20260504205601 | 17 | 179 | 4.8 | 6.4 | 0.00 | 0.00 | 0.00 | 45 | 934.7 |
| 20260504205501 | 17 | 141 | 4.8 | 6.4 | 0.00 | 0.00 | 0.00 | 45 | 934.7 |
| 20260504205400 | 17 | 151 | 4.8 | 6.4 | 0.00 | 0.00 | 0.00 | 45 | 934.6 |
| 20260504205303 | 17 | 157 | 4.8 | 6.4 | 0.00 | 0.00 | 0.00 | 45 | 934.6 |
| 20260504205201 | 17 | 148 | 3.2 | 4.8 | 0.00 | 0.00 | 0.00 | 46 | 934.6 |
| 20260504205101 | 17 | 155 | 4.8 | 6.4 | 0.00 | 0.00 | 0.00 | 45 | 934.8 |
| 20260504205001 | 17 | 159 | 3.2 | 6.4 | 0.00 | 0.00 | 0.00 | 46 | 934.6 |
| 20260504204901 | 17 | 136 | 3.2 | 6.4 | 0.00 | 0.00 | 0.00 | 45 | 934.7 |
| 20260504204801 | 17 | 141 | 4.8 | 6.4 | 0.00 | 0.00 | 0.00 | 45 | 934.8 |
| 20260504204701 | 17 | 150 | 4.8 | 6.4 | 0.00 | 0.00 | 0.00 | 45 | 934.8 |
| 20260504204601 | 17 | 120 | 4.8 | 8.0 | 0.00 | 0.00 | 0.00 | 45 | 934.6 |
| 20260504204501 | 17 | 143 | 4.8 | 9.7 | 0.00 | 0.00 | 0.00 | 45 | 934.7 |
| 20260504204401 | 17 | 161 | 6.4 | 9.7 | 0.00 | 0.00 | 0.00 | 45 | 934.7 |
| 20260504204300 | 17 | 142 | 4.8 | 8.0 | 0.00 | 0.00 | 0.00 | 45 | 934.7 |
| 20260504204201 | 17 | 142 | 4.8 | 6.4 | 0.00 | 0.00 | 0.00 | 45 | 934.7 |
| 20260504204101 | 17 | 144 | 4.8 | 6.4 | 0.00 | 0.00 | 0.00 | 46 | 934.9 |
| 20260504204000 | 17 | 154 | 4.8 | 6.4 | 0.00 | 0.00 | 0.00 | 46 | 934.8 |
| 20260504203902 | 17 | 147 | 4.8 | 6.4 | 0.00 | 0.00 | 0.00 | 46 | 934.7 |
| 20260504203801 | 17 | 158 | 4.8 | 6.4 | 0.00 | 0.00 | 0.00 | 46 | 934.7 |
| 20260504203700 | 17 | 176 | 4.8 | 6.4 | 0.00 | 0.00 | 0.00 | 46 | 934.8 |
| 20260504203601 | 17 | 154 | 4.8 | 6.4 | 0.00 | 0.00 | 0.00 | 46 | 934.8 |
| 20260504203501 | 17 | 157 | 4.8 | 6.4 | 0.00 | 0.00 | 0.00 | 46 | 934.6 |
| 20260504203400 | 17 | 163 | 4.8 | 6.4 | 0.00 | 0.00 | 0.00 | 46 | 934.6 |
| 20260504203301 | 17 | 155 | 4.8 | 6.4 | 0.00 | 0.00 | 0.00 | 46 | 934.8 |
| 20260504203201 | 16 | 151 | 4.8 | 6.4 | 0.00 | 0.00 | 0.00 | 47 | 934.8 |
| 20260504203101 | 17 | 139 | 4.8 | 4.8 | 0.00 | 0.00 | 0.00 | 47 | 934.6 |
| 20260504203000 | 17 | 159 | 3.2 | 4.8 | 0.00 | 0.00 | 0.00 | 48 | 934.6 |
| 20260504202901 | 17 | 153 | 3.2 | 6.4 | 0.00 | 0.00 | 0.00 | 47 | 934.7 |
| 20260504202802 | 17 | 146 | 4.8 | 6.4 | 0.00 | 0.00 | 0.00 | 47 | 934.6 |
| 20260504202701 | 17 | 140 | 4.8 | 4.8 | 0.00 | 0.00 | 0.00 | 47 | 934.7 |
| 20260504202601 | 17 | 145 | 3.2 | 4.8 | 0.00 | 0.00 | 0.00 | 47 | 934.7 |
| 20260504202500 | 17 | 129 | 1.6 | 4.8 | 0.00 | 0.00 | 0.00 | 48 | 934.8 |
| 20260504202401 | 17 | 139 | 4.8 | 4.8 | 0.00 | 0.00 | 0.00 | 47 | 934.6 |
| 20260504202301 | 17 | 154 | 3.2 | 4.8 | 0.00 | 0.00 | 0.00 | 48 | 934.7 |
| 20260504202201 | 17 | 145 | 3.2 | 4.8 | 0.00 | 0.00 | 0.00 | 47 | 934.7 |
| 20260504202101 | 17 | 147 | 3.2 | 6.4 | 0.00 | 0.00 | 0.00 | 48 | 934.9 |
| 20260504202001 | 17 | 144 | 4.8 | 6.4 | 0.00 | 0.00 | 0.00 | 47 | 934.6 |
| 20260504201901 | 17 | 136 | 4.8 | 4.8 | 0.00 | 0.00 | 0.00 | 47 | 934.8 |
| 20260504201802 | 17 | 124 | 4.8 | 4.8 | 0.00 | 0.00 | 0.00 | 48 | 934.7 |
| 20260504201701 | 17 | 146 | 3.2 | 4.8 | 0.00 | 0.00 | 0.00 | 47 | 934.7 |
| 20260504201600 | 17 | 157 | 3.2 | 4.8 | 0.00 | 0.00 | 0.00 | 48 | 934.9 |
| 20260504201501 | 17 | 157 | 3.2 | 4.8 | 0.00 | 0.00 | 0.00 | 48 | 934.9 |
| 20260504201401 | 17 | 113 | 3.2 | 4.8 | 0.00 | 0.00 | 0.00 | 48 | 934.6 |
| 20260504201300 | 17 | 130 | 1.6 | 4.8 | 0.00 | 0.00 | 0.00 | 49 | 934.7 |
| 20260504201200 | 17 | 142 | 4.8 | 4.8 | 0.00 | 0.00 | 0.00 | 48 | 934.6 |
| 20260504201101 | 17 | 156 | 3.2 | 4.8 | 0.00 | 0.00 | 0.00 | 48 | 934.7 |
| 20260504201001 | 17 | 127 | 3.2 | 4.8 | 0.00 | 0.00 | 0.00 | 48 | 934.8 |
| 20260504200901 | 17 | 119 | 4.8 | 4.8 | 0.00 | 0.00 | 0.00 | 48 | 934.8 |
| 20260504200800 | 17 | 144 | 4.8 | 4.8 | 0.00 | 0.00 | 0.00 | 49 | 934.8 |
| 20260504200701 | 17 | 141 | 3.2 | 4.8 | 0.00 | 0.00 | 0.00 | 49 | 934.9 |
| 20260504200600 | 17 | 161 | 3.2 | 4.8 | 0.00 | 0.00 | 0.00 | 49 | 934.6 |
| 20260504200501 | 17 | 138 | 3.2 | 3.2 | 0.00 | 0.00 | 0.00 | 49 | 934.8 |
| 20260504200401 | 17 | 154 | 1.6 | 3.2 | 0.00 | 0.00 | 0.00 | 50 | 934.7 |
| 20260504200301 | 17 | 126 | 1.6 | 3.2 | 0.00 | 0.00 | 0.00 | 49 | 934.8 |
| 20260504200201 | 17 | 134 | 3.2 | 4.8 | 0.00 | 0.00 | 0.00 | 49 | 935.0 |
| 20260504200001 | 17 | 117 | 3.2 | 4.8 | 0.00 | 0.00 | 0.00 | 49 | 934.9 |
| 20260504195901 | 17 | 125 | 3.2 | 4.8 | 0.00 | 0.00 | 0.00 | 49 | 934.9 |
| 20260504195802 | 17 | 152 | 3.2 | 4.8 | 0.00 | 0.00 | 0.00 | 49 | 934.6 |
| 20260504195700 | 17 | 155 | 3.2 | 3.2 | 0.00 | 0.00 | 0.00 | 49 | 934.7 |
| 20260504195601 | 17 | 129 | 3.2 | 4.8 | 0.00 | 0.00 | 0.00 | 48 | 934.7 |
| 20260504195501 | 17 | 143 | 3.2 | 4.8 | 0.00 | 0.00 | 0.00 | 48 | 934.9 |
| 20260504195401 | 17 | 119 | 3.2 | 4.8 | 0.00 | 0.00 | 0.00 | 48 | 934.8 |
| 20260504195301 | 17 | 146 | 4.8 | 6.4 | 0.00 | 0.00 | 0.00 | 48 | 934.9 |
| 20260504195201 | 17 | 127 | 3.2 | 6.4 | 0.00 | 0.00 | 0.00 | 48 | 934.6 |
| 20260504195101 | 17 | 107 | 3.2 | 6.4 | 0.00 | 0.00 | 0.00 | 48 | 934.7 |
| 20260504195001 | 17 | 134 | 3.2 | 6.4 | 0.00 | 0.00 | 0.00 | 48 | 934.7 |
| 20260504194901 | 17 | 131 | 3.2 | 4.8 | 0.00 | 0.00 | 0.00 | 49 | 934.8 |
| 20260504194801 | 17 | 122 | 3.2 | 4.8 | 0.00 | 0.00 | 0.00 | 49 | 934.7 |
| 20260504194701 | 17 | 116 | 3.2 | 4.8 | 0.00 | 0.00 | 0.00 | 49 | 935.0 |
| 20260504194601 | 17 | 130 | 3.2 | 3.2 | 0.00 | 0.00 | 0.00 | 50 | 934.7 |
| 20260504194501 | 17 | 133 | 3.2 | 3.2 | 0.00 | 0.00 | 0.00 | 50 | 934.7 |
| 20260504194401 | 17 | 119 | 3.2 | 4.8 | 0.00 | 0.00 | 0.00 | 49 | 934.7 |
| 20260504194301 | 17 | 129 | 4.8 | 4.8 | 0.00 | 0.00 | 0.00 | 49 | 934.9 |
| 20260504194201 | 17 | 121 | 3.2 | 3.2 | 0.00 | 0.00 | 0.00 | 49 | 934.9 |
| 20260504194101 | 17 | 120 | 1.6 | 3.2 | 0.00 | 0.00 | 0.00 | 51 | 935.0 |
| 20260504194001 | 17 | 118 | 1.6 | 3.2 | 0.00 | 0.00 | 0.00 | 50 | 935.0 |
| 20260504193900 | 17 | 129 | 3.2 | 3.2 | 0.00 | 0.00 | 0.00 | 51 | 935.2 |
| 20260504193801 | 17 | 120 | 3.2 | 3.2 | 0.00 | 0.00 | 0.00 | 49 | 935.0 |
| 20260504193701 | 17 | 114 | 1.6 | 3.2 | 0.00 | 0.00 | 0.00 | 53 | 934.7 |
| 20260504193600 | 17 | 100 | 1.6 | 1.6 | 0.00 | 0.00 | 0.00 | 52 | 934.8 |
| 20260504193501 | 17 | 110 | 1.6 | 3.2 | 0.00 | 0.00 | 0.00 | 52 | 935.0 |
| 20260504193401 | 17 | 114 | 1.6 | 3.2 | 0.00 | 0.00 | 0.00 | 52 | 934.9 |
| 20260504193301 | 17 | 115 | 3.2 | 3.2 | 0.00 | 0.00 | 0.00 | 52 | 934.9 |
| 20260504193203 | 17 | 98 | 1.6 | 3.2 | 0.00 | 0.00 | 0.00 | 52 | 934.8 |
| 20260504193102 | 17 | 109 | 3.2 | 3.2 | 0.00 | 0.00 | 0.00 | 52 | 934.7 |
| 20260504193002 | 17 | 97 | 3.2 | 3.2 | 0.00 | 0.00 | 0.00 | 53 | 935.0 |
| 20260504192901 | 17 | 74 | 1.6 | 3.2 | 0.00 | 0.00 | 0.00 | 55 | 934.9 |
| 20260504192701 | 17 | 103 | 1.6 | 3.2 | 0.00 | 0.00 | 0.00 | 55 | 934.8 |
| 20260504192600 | 17 | 83 | 1.6 | 1.6 | 0.00 | 0.00 | 0.00 | 56 | 934.9 |
| 20260504192501 | 17 | 69 | 1.6 | 3.2 | 0.00 | 0.00 | 0.00 | 55 | 934.9 |
| 20260504192401 | 17 | 83 | 1.6 | 1.6 | 0.00 | 0.00 | 0.00 | 55 | 935.0 |
| 20260504192301 | 17 | 100 | 1.6 | 3.2 | 0.00 | 0.00 | 0.00 | 56 | 934.9 |
| 20260504192201 | 17 | 95 | 1.6 | 3.2 | 0.00 | 0.00 | 0.00 | 55 | 934.8 |
| 20260504192101 | 17 | 61 | 1.6 | 3.2 | 0.00 | 0.00 | 0.00 | 54 | 934.9 |
| 20260504192001 | 17 | 76 | 1.6 | 3.2 | 0.00 | 0.00 | 0.00 | 55 | 935.0 |
| 20260504191901 | 17 | 56 | 1.6 | 3.2 | 0.00 | 0.00 | 0.00 | 55 | 934.9 |
| 20260504191801 | 17 | 51 | 1.6 | 3.2 | 0.00 | 0.00 | 0.00 | 55 | 934.8 |
| 20260504191700 | 17 | 59 | 1.6 | 1.6 | 0.00 | 0.00 | 0.00 | 56 | 934.9 |
| 20260504191601 | 17 | 56 | 1.6 | 3.2 | 0.00 | 0.00 | 0.00 | 56 | 934.9 |
| 20260504191501 | 17 | 56 | 1.6 | 3.2 | 0.00 | 0.00 | 0.00 | 56 | 934.9 |
| 20260504191401 | 17 | 61 | 1.6 | 3.2 | 0.00 | 0.00 | 0.00 | 56 | 934.8 |
| 20260504191301 | 17 | 73 | 1.6 | 3.2 | 0.00 | 0.00 | 0.00 | 57 | 934.9 |
| 20260504191201 | 17 | 48 | 1.6 | 1.6 | 0.00 | 0.00 | 0.00 | 57 | 934.9 |
| 20260504191101 | 17 | 49 | 1.6 | 1.6 | 0.00 | 0.00 | 0.00 | 56 | 934.6 |
| 20260504191001 | 17 | 41 | 1.6 | 1.6 | 0.00 | 0.00 | 0.00 | 56 | 934.8 |
| 20260504190901 | 17 | 53 | 1.6 | 1.6 | 0.00 | 0.00 | 0.00 | 56 | 934.9 |
| 20260504190801 | 17 | 45 | 1.6 | 1.6 | 0.00 | 0.00 | 0.00 | 56 | 934.9 |
| 20260504190701 | 17 | 41 | 1.6 | 1.6 | 0.00 | 0.00 | 0.00 | 56 | 934.8 |
| 20260504190601 | 17 | 45 | 1.6 | 1.6 | 0.00 | 0.00 | 0.00 | 56 | 935.0 |
| 20260504190501 | 17 | 46 | 1.6 | 3.2 | 0.00 | 0.00 | 0.00 | 56 | 934.7 |
| 20260504190401 | 17 | 53 | 1.6 | 3.2 | 0.00 | 0.00 | 0.00 | 56 | 934.9 |
| 20260504190300 | 17 | 34 | 1.6 | 3.2 | 0.00 | 0.00 | 0.00 | 56 | 934.8 |
| 20260504190201 | 17 | 45 | 3.2 | 3.2 | 0.00 | 0.00 | 0.00 | 56 | 934.8 |
| 20260504190101 | 17 | 42 | 3.2 | 3.2 | 0.00 | 0.00 | 0.00 | 56 | 934.7 |
| 20260504190001 | 17 | 41 | 3.2 | 3.2 | 0.00 | 0.00 | 0.00 | 55 | 934.9 |
| 20260504185901 | 17 | 60 | 1.6 | 3.2 | 0.00 | 0.00 | 0.00 | 55 | 934.9 |
| 20260504185801 | 17 | 41 | 1.6 | 3.2 | 0.00 | 0.00 | 0.00 | 55 | 934.8 |
| 20260504185701 | 17 | 48 | 1.6 | 3.2 | 0.00 | 0.00 | 0.00 | 54 | 934.8 |
| 20260504185601 | 17 | 51 | 3.2 | 3.2 | 0.00 | 0.00 | 0.00 | 55 | 934.9 |
| 20260504185501 | 17 | 54 | 1.6 | 1.6 | 0.00 | 0.00 | 0.00 | 55 | 934.6 |
| 20260504185401 | 17 | 47 | 1.6 | 3.2 | 0.00 | 0.00 | 0.00 | 54 | 934.8 |
| 20260504185301 | 17 | 38 | 1.6 | 3.2 | 0.00 | 0.00 | 0.00 | 54 | 934.9 |
| 20260504185201 | 17 | 39 | 1.6 | 3.2 | 0.00 | 0.00 | 0.00 | 54 | 934.8 |
| 20260504185101 | 17 | 43 | 1.6 | 3.2 | 0.00 | 0.00 | 0.00 | 54 | 935.0 |
| 20260504185001 | 17 | 50 | 1.6 | 1.6 | 0.00 | 0.00 | 0.00 | 54 | 935.0 |
| 20260504184901 | 17 | 48 | 1.6 | 1.6 | 0.00 | 0.00 | 0.00 | 54 | 934.9 |
| 20260504184801 | 17 | 42 | 1.6 | 1.6 | 0.00 | 0.00 | 0.00 | 54 | 934.8 |
| 20260504184701 | 17 | 44 | 1.6 | 1.6 | 0.00 | 0.00 | 0.00 | 54 | 934.9 |
| 20260504184601 | 17 | 40 | 1.6 | 1.6 | 0.00 | 0.00 | 0.00 | 54 | 934.8 |
| 20260504184501 | 17 | 40 | 1.6 | 1.6 | 0.00 | 0.00 | 0.00 | 54 | 934.9 |
| 20260504184402 | 17 | 51 | 1.6 | 1.6 | 0.00 | 0.00 | 0.00 | 54 | 934.7 |
| 20260504184301 | 17 | 50 | 1.6 | 1.6 | 0.00 | 0.00 | 0.00 | 54 | 934.7 |
| 20260504184201 | 17 | 52 | 1.6 | 1.6 | 0.00 | 0.00 | 0.00 | 54 | 934.9 |
| 20260504184101 | 17 | 55 | 1.6 | 3.2 | 0.00 | 0.00 | 0.00 | 54 | 934.6 |
| 20260504184001 | 17 | 49 | 1.6 | 3.2 | 0.00 | 0.00 | 0.00 | 54 | 934.8 |
| 20260504183901 | 17 | 43 | 1.6 | 1.6 | 0.00 | 0.00 | 0.00 | 55 | 934.7 |
| 20260504183801 | 17 | 41 | 1.6 | 3.2 | 0.00 | 0.00 | 0.00 | 54 | 934.7 |
| 20260504183701 | 17 | 45 | 1.6 | 3.2 | 0.00 | 0.00 | 0.00 | 54 | 934.8 |
| 20260504183601 | 17 | 40 | 1.6 | 3.2 | 0.00 | 0.00 | 0.00 | 54 | 934.6 |
| 20260504183500 | 17 | 37 | 1.6 | 3.2 | 0.00 | 0.00 | 0.00 | 54 | 934.7 |
| 20260504183401 | 17 | 34 | 1.6 | 1.6 | 0.00 | 0.00 | 0.00 | 54 | 934.9 |
| 20260504183301 | 17 | 47 | 1.6 | 1.6 | 0.00 | 0.00 | 0.00 | 54 | 934.8 |
| 20260504183201 | 17 | 43 | 1.6 | 1.6 | 0.00 | 0.00 | 0.00 | 54 | 934.7 |
| 20260504183100 | 17 | 41 | 1.6 | 1.6 | 0.00 | 0.00 | 0.00 | 54 | 934.7 |
| 20260504183001 | 17 | 46 | 1.6 | 3.2 | 0.00 | 0.00 | 0.00 | 54 | 934.7 |
| 20260504182901 | 17 | 44 | 1.6 | 3.2 | 0.00 | 0.00 | 0.00 | 54 | 934.6 |
| 20260504182801 | 17 | 35 | 1.6 | 3.2 | 0.00 | 0.00 | 0.00 | 54 | 934.7 |
| 20260504182701 | 17 | 39 | 1.6 | 1.6 | 0.00 | 0.00 | 0.00 | 54 | 934.7 |
| 20260504182600 | 17 | 35 | 1.6 | 1.6 | 0.00 | 0.00 | 0.00 | 54 | 934.6 |
| 20260504182501 | 17 | 46 | 1.6 | 1.6 | 0.00 | 0.00 | 0.00 | 55 | 934.8 |
| 20260504182401 | 17 | 44 | 1.6 | 1.6 | 0.00 | 0.00 | 0.00 | 55 | 934.8 |
| 20260504182102 | 18 | 41 | 1.6 | 1.6 | 0.00 | 0.00 | 0.00 | 54 | 934.7 |
| 20260504182001 | 18 | 41 | 1.6 | 3.2 | 0.00 | 0.00 | 0.00 | 54 | 934.8 |
| 20260504181802 | 18 | 45 | 1.6 | 1.6 | 0.00 | 0.00 | 0.00 | 54 | 934.8 |
| 20260504181700 | 18 | 42 | 1.6 | 1.6 | 0.00 | 0.00 | 0.00 | 54 | 934.9 |
| 20260504181601 | 18 | 45 | 1.6 | 1.6 | 0.00 | 0.00 | 0.00 | 54 | 934.9 |
| 20260504181500 | 18 | 46 | 1.6 | 1.6 | 0.00 | 0.00 | 0.00 | 54 | 934.6 |
| 20260504181401 | 18 | 46 | 1.6 | 1.6 | 0.00 | 0.00 | 0.00 | 54 | 934.6 |
| 20260504181301 | 18 | 47 | 1.6 | 1.6 | 0.00 | 0.00 | 0.00 | 54 | 934.7 |
| 20260504181200 | 18 | 51 | 1.6 | 1.6 | 0.00 | 0.00 | 0.00 | 54 | 934.6 |
| 20260504181101 | 18 | 46 | 1.6 | 1.6 | 0.00 | 0.00 | 0.00 | 54 | 934.8 |
| 20260504181001 | 18 | 47 | 1.6 | 1.6 | 0.00 | 0.00 | 0.00 | 54 | 934.8 |
| 20260504180900 | 18 | 44 | 1.6 | 1.6 | 0.00 | 0.00 | 0.00 | 54 | 934.9 |
| 20260504180801 | 18 | 48 | 1.6 | 1.6 | 0.00 | 0.00 | 0.00 | 54 | 934.5 |
| 20260504180701 | 18 | 46 | 1.6 | 1.6 | 0.00 | 0.00 | 0.00 | 54 | 934.5 |
| 20260504180601 | 18 | 45 | 1.6 | 1.6 | 0.00 | 0.00 | 0.00 | 53 | 934.7 |
| 20260504180501 | 18 | 41 | 1.6 | 1.6 | 0.00 | 0.00 | 0.00 | 53 | 934.7 |
| 20260504180401 | 18 | 36 | 1.6 | 1.6 | 0.00 | 0.00 | 0.00 | 53 | 934.9 |
| 20260504180301 | 18 | 36 | 1.6 | 1.6 | 0.00 | 0.00 | 0.00 | 53 | 934.8 |
| 20260504180201 | 18 | 38 | 1.6 | 1.6 | 0.00 | 0.00 | 0.00 | 54 | 934.8 |
| 20260504180001 | 18 | 31 | 1.6 | 1.6 | 0.00 | 0.00 | 0.00 | 53 | 934.8 |
| 20260504175901 | 18 | 30 | 1.6 | 1.6 | 0.00 | 0.00 | 0.00 | 52 | 934.6 |
| 20260504175801 | 18 | 28 | 1.6 | 1.6 | 0.00 | 0.00 | 0.00 | 53 | 934.8 |
| 20260504175701 | 18 | 31 | 1.6 | 1.6 | 0.00 | 0.00 | 0.00 | 53 | 934.7 |
| 20260504175603 | 18 | 21 | 1.6 | 1.6 | 0.00 | 0.00 | 0.00 | 53 | 934.6 |
| 20260504175501 | 18 | 17 | 1.6 | 1.6 | 0.00 | 0.00 | 0.00 | 53 | 934.8 |
| 20260504175400 | 18 | 18 | 1.6 | 1.6 | 0.00 | 0.00 | 0.00 | 53 | 934.7 |
| 20260504175301 | 18 | 28 | 1.6 | 3.2 | 0.00 | 0.00 | 0.00 | 53 | 934.6 |
| 20260504175201 | 18 | 24 | 1.6 | 1.6 | 0.00 | 0.00 | 0.00 | 53 | 934.7 |
| 20260504175101 | 18 | 20 | 1.6 | 3.2 | 0.00 | 0.00 | 0.00 | 53 | 934.6 |
| 20260504175002 | 18 | 29 | 1.6 | 3.2 | 0.00 | 0.00 | 0.00 | 53 | 934.9 |
| 20260504174902 | 18 | 25 | 1.6 | 1.6 | 0.00 | 0.00 | 0.00 | 53 | 934.6 |
| 20260504174802 | 18 | 24 | 1.6 | 1.6 | 0.00 | 0.00 | 0.00 | 53 | 934.9 |
| 20260504174701 | 18 | 8 | 1.6 | 1.6 | 0.00 | 0.00 | 0.00 | 52 | 934.6 |
| 20260504174601 | 18 | 7 | 1.6 | 1.6 | 0.00 | 0.00 | 0.00 | 52 | 934.8 |
| 20260504174502 | 18 | 12 | 1.6 | 1.6 | 0.00 | 0.00 | 0.00 | 52 | 934.8 |
| 20260504174402 | 18 | 18 | 1.6 | 1.6 | 0.00 | 0.00 | 0.00 | 52 | 934.7 |
| 20260504174305 | 18 | 12 | 1.6 | 1.6 | 0.00 | 0.00 | 0.00 | 52 | 934.7 |
| 20260504174201 | 18 | 22 | 1.6 | 1.6 | 0.00 | 0.00 | 0.00 | 52 | 934.7 |
| 20260504174101 | 18 | 20 | 1.6 | 1.6 | 0.00 | 0.00 | 0.00 | 52 | 934.6 |
| 20260504174001 | 18 | 26 | 1.6 | 1.6 | 0.00 | 0.00 | 0.00 | 52 | 934.8 |
| 20260504173902 | 18 | 21 | 1.6 | 1.6 | 0.00 | 0.00 | 0.00 | 52 | 934.6 |
| 20260504173801 | 18 | 24 | 1.6 | 1.6 | 0.00 | 0.00 | 0.00 | 52 | 934.7 |
| 20260504173701 | 18 | 23 | 1.6 | 1.6 | 0.00 | 0.00 | 0.00 | 52 | 934.8 |
| 20260504173601 | 18 | 21 | 1.6 | 1.6 | 0.00 | 0.00 | 0.00 | 53 | 934.6 |
| 20260504173501 | 18 | 28 | 1.6 | 1.6 | 0.00 | 0.00 | 0.00 | 53 | 934.6 |
| 20260504173401 | 18 | 29 | 1.6 | 1.6 | 0.00 | 0.00 | 0.00 | 54 | 934.6 |
| 20260504173301 | 18 | 20 | 1.6 | 1.6 | 0.00 | 0.00 | 0.00 | 53 | 934.7 |
| 20260504173201 | 18 | 6 | 1.6 | 1.6 | 0.00 | 0.00 | 0.00 | 53 | 934.7 |
| 20260504173101 | 19 | 4 | 1.6 | 1.6 | 0.00 | 0.00 | 0.00 | 52 | 934.6 |
| 20260504173000 | 19 | 19 | 1.6 | 1.6 | 0.00 | 0.00 | 0.00 | 52 | 934.7 |
| 20260504172901 | 19 | 5 | 1.6 | 1.6 | 0.00 | 0.00 | 0.00 | 52 | 934.7 |
| 20260504172801 | 19 | 17 | 1.6 | 1.6 | 0.00 | 0.00 | 0.00 | 51 | 934.8 |
| 20260504172701 | 19 | 13 | 1.6 | 1.6 | 0.00 | 0.00 | 0.00 | 52 | 934.6 |
| 20260504172601 | 19 | 353 | 1.6 | 1.6 | 0.00 | 0.00 | 0.00 | 50 | 934.7 |
| 20260504172500 | 20 | 352 | 1.6 | 1.6 | 0.00 | 0.00 | 0.00 | 50 | 934.7 |
| 20260504172401 | 20 | 85 | 1.6 | 1.6 | 0.00 | 0.00 | 0.00 | 49 | 934.7 |
| 20260504172300 | 20 | 95 | 0.0 | 1.6 | 0.00 | 0.00 | 0.00 | 50 | 934.5 |
| 20260504172201 | 20 | 95 | 0.0 | 0.0 | 0.00 | 0.00 | 0.00 | 47 | 934.7 |
| 20260504172101 | 20 | 95 | 0.0 | 0.0 | 0.00 | 0.00 | 0.00 | 48 | 934.5 |
| 20260504172003 | 20 | 95 | 0.0 | 0.0 | 0.00 | 0.00 | 0.00 | 47 | 934.5 |
| 20260504171901 | 20 | 95 | 0.0 | 0.0 | 0.00 | 0.00 | 0.00 | 47 | 934.7 |
| 20260504171800 | 20 | 95 | 0.0 | 0.0 | 0.00 | 0.00 | 0.00 | 47 | 934.9 |
| 20260504171700 | 20 | 95 | 0.0 | 0.0 | 0.00 | 0.00 | 0.00 | 46 | 934.9 |
| 20260504171601 | 20 | 95 | 0.0 | 0.0 | 0.00 | 0.00 | 0.00 | 47 | 934.8 |
| 20260504171501 | 20 | 95 | 0.0 | 1.6 | 0.00 | 0.00 | 0.00 | 46 | 934.5 |
| 20260504171401 | 20 | 95 | 0.0 | 1.6 | 0.00 | 0.00 | 0.00 | 46 | 934.7 |
| 20260504171301 | 20 | 95 | 0.0 | 1.6 | 0.00 | 0.00 | 0.00 | 47 | 934.6 |
| 20260504171201 | 20 | 95 | 0.0 | 1.6 | 0.00 | 0.00 | 0.00 | 47 | 934.6 |
| 20260504171100 | 20 | 95 | 1.6 | 1.6 | 0.00 | 0.00 | 0.00 | 46 | 934.5 |
| 20260504171001 | 20 | 95 | 1.6 | 1.6 | 0.00 | 0.00 | 0.00 | 46 | 934.5 |
| 20260504170900 | 20 | 96 | 1.6 | 1.6 | 0.00 | 0.00 | 0.00 | 46 | 934.6 |
| 20260504170801 | 20 | 95 | 0.0 | 1.6 | 0.00 | 0.00 | 0.00 | 47 | 934.6 |
| 20260504170701 | 20 | 95 | 0.0 | 1.6 | 0.00 | 0.00 | 0.00 | 48 | 934.5 |
| 20260504170601 | 20 | 95 | 1.6 | 1.6 | 0.00 | 0.00 | 0.00 | 46 | 934.8 |
| 20260504170501 | 20 | 112 | 0.0 | 1.6 | 0.00 | 0.00 | 0.00 | 45 | 934.7 |
| 20260504170401 | 20 | 112 | 0.0 | 1.6 | 0.00 | 0.00 | 0.00 | 46 | 934.7 |
| 20260504170301 | 20 | 112 | 0.0 | 1.6 | 0.00 | 0.00 | 0.00 | 47 | 934.8 |
| 20260504170201 | 20 | 112 | 0.0 | 0.0 | 0.00 | 0.00 | 0.00 | 48 | 934.6 |
| 20260504160401 | 21 | 97 | 0.0 | 0.0 | 0.00 | 0.00 | 0.00 | 45 | 934.9 |
| 20260504160302 | 21 | 97 | 0.0 | 0.0 | 0.00 | 0.00 | 0.00 | 46 | 934.9 |
| 20260504160202 | 21 | 97 | 0.0 | 0.0 | 0.00 | 0.00 | 0.00 | 46 | 935.0 |
| 20260504151101 | 20 | 97 | 0.0 | 1.6 | 0.00 | 0.00 | 0.00 | 47 | 935.0 |
| 20260504151001 | 20 | 108 | 0.0 | 1.6 | 0.00 | 0.00 | 0.00 | 44 | 934.9 |
| 20260504150901 | 20 | 115 | 1.6 | 1.6 | 0.00 | 0.00 | 0.00 | 44 | 935.1 |
| 20260504150801 | 20 | 123 | 1.6 | 1.6 | 0.00 | 0.00 | 0.00 | 45 | 935.0 |
| 20260504150705 | 20 | 104 | 1.6 | 3.2 | 0.00 | 0.00 | 0.00 | 45 | 935.0 |
| 20260504150602 | 20 | 109 | 1.6 | 3.2 | 0.00 | 0.00 | 0.00 | 45 | 935.0 |
| 20260504150501 | 20 | 127 | 1.6 | 1.6 | 0.00 | 0.00 | 0.00 | 47 | 935.0 |
| 20260504150401 | 20 | 150 | 1.6 | 1.6 | 0.00 | 0.00 | 0.00 | 50 | 935.0 |
| 20260504150302 | 20 | 129 | 1.6 | 1.6 | 0.00 | 0.00 | 0.00 | 46 | 935.1 |
| 20260504150202 | 20 | 146 | 1.6 | 1.6 | 0.00 | 0.00 | 0.00 | 45 | 934.9 |
| 20260504141302 | 22 | 191 | 1.6 | 3.2 | 0.00 | 0.00 | 0.00 | 40 | 935.4 |
| 20260504141201 | 22 | 163 | 1.6 | 3.2 | 0.00 | 0.00 | 0.00 | 41 | 935.4 |
| 20260504141101 | 22 | 192 | 1.6 | 3.2 | 0.00 | 0.00 | 0.00 | 39 | 935.7 |
| 20260504141000 | 22 | 214 | 1.6 | 3.2 | 0.00 | 0.00 | 0.00 | 39 | 935.5 |
| 20260504140901 | 22 | 214 | 1.6 | 3.2 | 0.00 | 0.00 | 0.00 | 39 | 935.5 |
| 20260504140801 | 22 | 218 | 0.0 | 1.6 | 0.00 | 0.00 | 0.00 | 40 | 935.5 |
| 20260504140700 | 22 | 223 | 0.0 | 1.6 | 0.00 | 0.00 | 0.00 | 39 | 935.5 |
| 20260504140602 | 22 | 186 | 0.0 | 0.0 | 0.00 | 0.00 | 0.00 | 42 | 935.3 |
| 20260504140502 | 22 | 186 | 0.0 | 1.6 | 0.00 | 0.00 | 0.00 | 44 | 935.5 |
| 20260504140402 | 22 | 186 | 0.0 | 1.6 | 0.00 | 0.00 | 0.00 | 41 | 935.7 |
| 20260504140301 | 22 | 191 | 1.6 | 1.6 | 0.00 | 0.00 | 0.00 | 43 | 935.5 |
| 20260504140202 | 22 | 207 | 1.6 | 3.2 | 0.00 | 0.00 | 0.00 | 41 | 935.3 |
| 20260504130806 | 21 | 141 | 1.6 | 3.2 | 0.00 | 0.00 | 0.00 | 48 | 935.7 |
| 20260504130701 | 21 | 192 | 3.2 | 4.8 | 0.00 | 0.00 | 0.00 | 50 | 935.8 |
| 20260504130601 | 21 | 133 | 1.6 | 3.2 | 0.00 | 0.00 | 0.00 | 47 | 935.8 |
| 20260504130501 | 21 | 109 | 1.6 | 3.2 | 0.00 | 0.00 | 0.00 | 48 | 935.8 |
| 20260504130401 | 21 | 214 | 1.6 | 3.2 | 0.00 | 0.00 | 0.00 | 51 | 935.8 |
| 20260504130301 | 21 | 163 | 3.2 | 3.2 | 0.00 | 0.00 | 0.00 | 52 | 935.8 |
| 20260504130201 | 21 | 140 | 1.6 | 3.2 | 0.00 | 0.00 | 0.00 | 49 | 935.6 |
| 20260504120301 | 19 | 201 | 3.2 | 4.8 | 0.00 | 0.00 | 0.00 | 50 | 936.1 |
| 20260504120201 | 19 | 212 | 3.2 | 4.8 | 0.00 | 0.00 | 0.00 | 50 | 936.1 |
| 20260504110701 | 18 | 179 | 3.2 | 4.8 | 0.00 | 0.00 | 0.00 | 53 | 936.4 |
| 20260504110601 | 18 | 166 | 4.8 | 4.8 | 0.00 | 0.00 | 0.00 | 52 | 936.4 |
| 20260504110501 | 18 | 167 | 3.2 | 4.8 | 0.00 | 0.00 | 0.00 | 52 | 936.4 |
| 20260504110401 | 18 | 187 | 3.2 | 4.8 | 0.00 | 0.00 | 0.00 | 53 | 936.4 |
| 20260504110301 | 18 | 144 | 1.6 | 3.2 | 0.00 | 0.00 | 0.00 | 54 | 936.3 |
| 20260504110201 | 18 | 154 | 1.6 | 4.8 | 0.00 | 0.00 | 0.00 | 54 | 936.3 |
| 20260504100602 | 16 | 204 | 3.2 | 3.2 | 0.00 | 0.00 | 0.00 | 58 | 936.9 |
| 20260504100501 | 16 | 203 | 1.6 | 4.8 | 0.00 | 0.00 | 0.00 | 56 | 936.7 |
| 20260504100401 | 16 | 195 | 3.2 | 4.8 | 0.00 | 0.00 | 0.00 | 55 | 936.8 |
| 20260504100301 | 16 | 171 | 3.2 | 4.8 | 0.00 | 0.00 | 0.00 | 55 | 936.7 |
| 20260504100201 | 16 | 150 | 3.2 | 4.8 | 0.00 | 0.00 | 0.00 | 56 | 936.7 |
| 20260504082001 | 15 | 191 | 1.6 | 3.2 | 0.00 | 0.00 | 0.00 | 58 | 936.8 |
| 20260504081900 | 15 | 192 | 3.2 | 3.2 | 0.00 | 0.00 | 0.00 | 59 | 936.8 |
| 20260504081801 | 15 | 185 | 1.6 | 3.2 | 0.00 | 0.00 | 0.00 | 57 | 936.9 |
| 20260504081701 | 15 | 208 | 3.2 | 3.2 | 0.00 | 0.00 | 0.00 | 58 | 936.6 |
| 20260504081600 | 15 | 186 | 1.6 | 1.6 | 0.00 | 0.00 | 0.00 | 61 | 936.8 |
| 20260504081501 | 15 | 169 | 1.6 | 3.2 | 0.00 | 0.00 | 0.00 | 61 | 936.8 |
| 20260504081400 | 15 | 199 | 3.2 | 4.8 | 0.00 | 0.00 | 0.00 | 58 | 936.9 |
| 20260504081301 | 15 | 196 | 1.6 | 4.8 | 0.00 | 0.00 | 0.00 | 58 | 936.7 |
| 20260504081201 | 15 | 196 | 3.2 | 4.8 | 0.00 | 0.00 | 0.00 | 57 | 936.7 |
| 20260504081101 | 15 | 214 | 3.2 | 4.8 | 0.00 | 0.00 | 0.00 | 57 | 936.5 |
| 20260504081001 | 15 | 208 | 3.2 | 3.2 | 0.00 | 0.00 | 0.00 | 61 | 936.7 |
| 20260504080901 | 15 | 218 | 3.2 | 3.2 | 0.00 | 0.00 | 0.00 | 57 | 936.6 |
| 20260504080801 | 15 | 181 | 3.2 | 3.2 | 0.00 | 0.00 | 0.00 | 60 | 936.7 |
| 20260504080702 | 15 | 201 | 1.6 | 1.6 | 0.00 | 0.00 | 0.00 | 59 | 936.6 |
| 20260504080601 | 15 | 200 | 1.6 | 3.2 | 0.00 | 0.00 | 0.00 | 56 | 936.7 |
| 20260504080502 | 15 | 200 | 1.6 | 3.2 | 0.00 | 0.00 | 0.00 | 56 | 936.7 |
| 20260504080406 | 15 | 173 | 1.6 | 3.2 | 0.00 | 0.00 | 0.00 | 58 | 936.6 |
| 20260504080301 | 15 | 190 | 3.2 | 3.2 | 0.00 | 0.00 | 0.00 | 58 | 936.6 |
| 20260504080202 | 15 | 179 | 1.6 | 3.2 | 0.00 | 0.00 | 0.00 | 58 | 936.6 |
| 20260504070401 | 13 | 112 | 3.2 | 4.8 | 0.00 | 0.00 | 0.00 | 62 | 936.0 |
| 20260504070301 | 13 | 112 | 3.2 | 4.8 | 0.00 | 0.00 | 0.00 | 62 | 936.0 |
| 20260504070201 | 13 | 141 | 3.2 | 4.8 | 0.00 | 0.00 | 0.00 | 61 | 936.0 |
| 20260504070104 | 13 | 136 | 4.8 | 4.8 | 0.00 | 0.00 | 0.00 | 62 | 936.3 |
| 20260504060201 | 11 | 163 | 4.8 | 6.4 | 0.00 | 0.00 | 0.00 | 61 | 936.1 |
| 20260504050700 | 11 | 145 | 3.2 | 4.8 | 0.00 | 0.00 | 0.00 | 61 | 935.7 |
| 20260504050600 | 11 | 127 | 3.2 | 4.8 | 0.00 | 0.00 | 0.00 | 61 | 935.9 |
| 20260504050501 | 11 | 144 | 3.2 | 4.8 | 0.00 | 0.00 | 0.00 | 61 | 935.9 |
| 20260504050401 | 11 | 146 | 4.8 | 4.8 | 0.00 | 0.00 | 0.00 | 61 | 935.9 |
| 20260504050301 | 11 | 125 | 3.2 | 4.8 | 0.00 | 0.00 | 0.00 | 61 | 936.0 |
| 20260504050103 | 11 | 138 | 4.8 | 4.8 | 0.00 | 0.00 | 0.00 | 60 | 935.9 |
| 20260504050001 | 11 | 170 | 4.8 | 4.8 | 0.00 | 0.00 | 0.00 | 61 | 936.0 |
| 20260504045901 | 11 | 131 | 3.2 | 4.8 | 0.00 | 0.00 | 0.00 | 61 | 936.0 |
| 20260504045801 | 11 | 143 | 3.2 | 3.2 | 0.00 | 0.00 | 0.00 | 61 | 935.9 |
| 20260504045700 | 11 | 134 | 3.2 | 4.8 | 0.00 | 0.00 | 0.00 | 61 | 935.7 |
| 20260504045602 | 11 | 144 | 3.2 | 4.8 | 0.00 | 0.00 | 0.00 | 61 | 936.0 |
| 20260504045500 | 11 | 145 | 3.2 | 4.8 | 0.00 | 0.00 | 0.00 | 61 | 935.8 |
| 20260504045401 | 11 | 142 | 3.2 | 4.8 | 0.00 | 0.00 | 0.00 | 61 | 936.0 |
| 20260504045301 | 11 | 141 | 3.2 | 4.8 | 0.00 | 0.00 | 0.00 | 61 | 935.8 |
| 20260504045201 | 11 | 127 | 3.2 | 4.8 | 0.00 | 0.00 | 0.00 | 61 | 936.0 |
| 20260504045101 | 11 | 140 | 3.2 | 4.8 | 0.00 | 0.00 | 0.00 | 61 | 935.9 |
| 20260504045001 | 11 | 121 | 3.2 | 4.8 | 0.00 | 0.00 | 0.00 | 60 | 935.8 |
| 20260504044901 | 11 | 142 | 3.2 | 4.8 | 0.00 | 0.00 | 0.00 | 60 | 936.0 |
| 20260504044801 | 11 | 163 | 3.2 | 4.8 | 0.00 | 0.00 | 0.00 | 60 | 935.9 |
| 20260504044701 | 11 | 144 | 4.8 | 4.8 | 0.00 | 0.00 | 0.00 | 60 | 936.0 |
| 20260504044602 | 11 | 149 | 3.2 | 4.8 | 0.00 | 0.00 | 0.00 | 60 | 935.9 |
| 20260504044501 | 11 | 147 | 3.2 | 4.8 | 0.00 | 0.00 | 0.00 | 60 | 935.9 |
| 20260504044401 | 11 | 152 | 3.2 | 4.8 | 0.00 | 0.00 | 0.00 | 60 | 935.8 |
| 20260504044301 | 11 | 134 | 3.2 | 3.2 | 0.00 | 0.00 | 0.00 | 60 | 935.9 |
| 20260504044202 | 11 | 157 | 1.6 | 3.2 | 0.00 | 0.00 | 0.00 | 61 | 936.0 |
| 20260504044102 | 11 | 144 | 1.6 | 3.2 | 0.00 | 0.00 | 0.00 | 60 | 935.9 |
| 20260504044001 | 11 | 138 | 3.2 | 4.8 | 0.00 | 0.00 | 0.00 | 60 | 936.0 |
| 20260504043900 | 11 | 171 | 4.8 | 4.8 | 0.00 | 0.00 | 0.00 | 59 | 936.0 |
| 20260504043801 | 11 | 180 | 3.2 | 3.2 | 0.00 | 0.00 | 0.00 | 60 | 935.9 |
| 20260504043701 | 11 | 159 | 3.2 | 3.2 | 0.00 | 0.00 | 0.00 | 60 | 936.0 |
| 20260504043601 | 11 | 144 | 1.6 | 3.2 | 0.00 | 0.00 | 0.00 | 61 | 935.7 |
| 20260504043502 | 11 | 152 | 3.2 | 3.2 | 0.00 | 0.00 | 0.00 | 60 | 935.8 |
| 20260504043401 | 11 | 155 | 3.2 | 3.2 | 0.00 | 0.00 | 0.00 | 60 | 936.0 |
| 20260504043301 | 11 | 168 | 1.6 | 3.2 | 0.00 | 0.00 | 0.00 | 60 | 936.1 |
| 20260504043201 | 11 | 155 | 1.6 | 3.2 | 0.00 | 0.00 | 0.00 | 60 | 935.7 |
| 20260504043101 | 11 | 175 | 1.6 | 4.8 | 0.00 | 0.00 | 0.00 | 59 | 935.9 |
| 20260504043001 | 11 | 165 | 3.2 | 4.8 | 0.00 | 0.00 | 0.00 | 59 | 935.9 |
| 20260504042901 | 11 | 149 | 3.2 | 4.8 | 0.00 | 0.00 | 0.00 | 59 | 935.9 |
| 20260504042805 | 11 | 164 | 3.2 | 4.8 | 0.00 | 0.00 | 0.00 | 59 | 935.9 |
| 20260504042701 | 11 | 158 | 3.2 | 4.8 | 0.00 | 0.00 | 0.00 | 59 | 935.9 |
| 20260504042600 | 11 | 166 | 3.2 | 3.2 | 0.00 | 0.00 | 0.00 | 59 | 935.8 |
| 20260504042501 | 11 | 186 | 3.2 | 3.2 | 0.00 | 0.00 | 0.00 | 59 | 936.1 |
| 20260504042401 | 11 | 180 | 3.2 | 3.2 | 0.00 | 0.00 | 0.00 | 59 | 935.9 |
| 20260504042301 | 11 | 174 | 1.6 | 4.8 | 0.00 | 0.00 | 0.00 | 59 | 935.8 |
| 20260504042201 | 11 | 176 | 3.2 | 4.8 | 0.00 | 0.00 | 0.00 | 59 | 935.9 |
| 20260504042102 | 11 | 158 | 3.2 | 4.8 | 0.00 | 0.00 | 0.00 | 58 | 935.8 |
| 20260504042002 | 11 | 176 | 3.2 | 4.8 | 0.00 | 0.00 | 0.00 | 58 | 935.9 |
| 20260504041901 | 11 | 154 | 4.8 | 4.8 | 0.00 | 0.00 | 0.00 | 58 | 935.8 |
| 20260504041801 | 11 | 165 | 4.8 | 6.4 | 0.00 | 0.00 | 0.00 | 58 | 935.7 |
| 20260504041701 | 11 | 171 | 3.2 | 6.4 | 0.00 | 0.00 | 0.00 | 58 | 935.7 |
| 20260504041601 | 11 | 183 | 4.8 | 6.4 | 0.00 | 0.00 | 0.00 | 58 | 935.6 |
| 20260504041501 | 11 | 167 | 4.8 | 4.8 | 0.00 | 0.00 | 0.00 | 58 | 935.7 |
| 20260504041401 | 11 | 145 | 3.2 | 6.4 | 0.00 | 0.00 | 0.00 | 59 | 935.5 |
| 20260504041301 | 11 | 173 | 3.2 | 4.8 | 0.00 | 0.00 | 0.00 | 59 | 935.6 |
| 20260504041201 | 11 | 173 | 3.2 | 6.4 | 0.00 | 0.00 | 0.00 | 59 | 935.5 |
| 20260504041101 | 11 | 153 | 4.8 | 6.4 | 0.00 | 0.00 | 0.00 | 58 | 935.5 |
| 20260504041002 | 11 | 150 | 3.2 | 6.4 | 0.00 | 0.00 | 0.00 | 58 | 935.4 |
| 20260504040902 | 11 | 161 | 3.2 | 6.4 | 0.00 | 0.00 | 0.00 | 58 | 935.5 |
| 20260504040800 | 11 | 141 | 4.8 | 6.4 | 0.00 | 0.00 | 0.00 | 58 | 935.7 |
| 20260504040701 | 11 | 150 | 6.4 | 6.4 | 0.00 | 0.00 | 0.00 | 58 | 935.5 |
| 20260504040600 | 11 | 143 | 6.4 | 8.0 | 0.00 | 0.00 | 0.00 | 58 | 935.5 |
| 20260504040502 | 11 | 132 | 4.8 | 8.0 | 0.00 | 0.00 | 0.00 | 58 | 935.8 |
| 20260504040401 | 11 | 140 | 6.4 | 6.4 | 0.00 | 0.00 | 0.00 | 59 | 935.6 |
| 20260504040300 | 11 | 140 | 4.8 | 6.4 | 0.00 | 0.00 | 0.00 | 58 | 935.6 |
| 20260504040203 | 11 | 140 | 4.8 | 6.4 | 0.00 | 0.00 | 0.00 | 58 | 935.6 |
| 20260504040001 | 11 | 142 | 4.8 | 6.4 | 0.00 | 0.00 | 0.00 | 58 | 935.7 |
| 20260504035902 | 11 | 137 | 4.8 | 6.4 | 0.00 | 0.00 | 0.00 | 58 | 935.6 |
| 20260504035801 | 11 | 142 | 4.8 | 8.0 | 0.00 | 0.00 | 0.00 | 58 | 935.5 |
| 20260504035700 | 11 | 151 | 4.8 | 8.0 | 0.00 | 0.00 | 0.00 | 58 | 935.3 |
| 20260504035601 | 11 | 136 | 6.4 | 8.0 | 0.00 | 0.00 | 0.00 | 57 | 935.4 |
| 20260504035501 | 11 | 175 | 6.4 | 8.0 | 0.00 | 0.00 | 0.00 | 58 | 935.5 |
| 20260504035401 | 11 | 152 | 4.8 | 6.4 | 0.00 | 0.00 | 0.00 | 58 | 935.3 |
| 20260504035301 | 11 | 153 | 6.4 | 6.4 | 0.00 | 0.00 | 0.00 | 57 | 935.3 |
| 20260504035201 | 11 | 140 | 6.4 | 8.0 | 0.00 | 0.00 | 0.00 | 57 | 935.3 |
| 20260504035101 | 11 | 156 | 6.4 | 8.0 | 0.00 | 0.00 | 0.00 | 57 | 935.2 |
| 20260504035000 | 11 | 144 | 6.4 | 8.0 | 0.00 | 0.00 | 0.00 | 58 | 935.4 |
| 20260504034901 | 11 | 160 | 4.8 | 8.0 | 0.00 | 0.00 | 0.00 | 58 | 935.2 |
| 20260504034801 | 11 | 139 | 6.4 | 6.4 | 0.00 | 0.00 | 0.00 | 57 | 935.5 |
| 20260504034702 | 11 | 140 | 4.8 | 6.4 | 0.00 | 0.00 | 0.00 | 57 | 935.3 |
| 20260504034601 | 11 | 138 | 4.8 | 6.4 | 0.00 | 0.00 | 0.00 | 58 | 935.3 |
| 20260504034501 | 11 | 176 | 4.8 | 6.4 | 0.00 | 0.00 | 0.00 | 57 | 935.5 |
| 20260504034402 | 11 | 172 | 6.4 | 8.0 | 0.00 | 0.00 | 0.00 | 57 | 935.3 |
| 20260504034302 | 11 | 150 | 6.4 | 8.0 | 0.00 | 0.00 | 0.00 | 57 | 935.5 |
| 20260504034201 | 11 | 158 | 4.8 | 6.4 | 0.00 | 0.00 | 0.00 | 58 | 935.5 |
| 20260504034101 | 11 | 161 | 4.8 | 6.4 | 0.00 | 0.00 | 0.00 | 57 | 935.5 |
| 20260504034001 | 11 | 157 | 4.8 | 6.4 | 0.00 | 0.00 | 0.00 | 57 | 935.5 |
| 20260504033903 | 11 | 149 | 4.8 | 6.4 | 0.00 | 0.00 | 0.00 | 57 | 935.5 |
| 20260504033807 | 11 | 148 | 4.8 | 6.4 | 0.00 | 0.00 | 0.00 | 57 | 935.4 |
| 20260504033701 | 11 | 168 | 6.4 | 6.4 | 0.00 | 0.00 | 0.00 | 57 | 935.3 |
| 20260504033600 | 11 | 152 | 4.8 | 6.4 | 0.00 | 0.00 | 0.00 | 57 | 935.5 |
| 20260504033501 | 11 | 158 | 4.8 | 6.4 | 0.00 | 0.00 | 0.00 | 57 | 935.4 |
| 20260504033400 | 11 | 141 | 4.8 | 6.4 | 0.00 | 0.00 | 0.00 | 57 | 935.6 |
| 20260504033301 | 11 | 167 | 6.4 | 6.4 | 0.00 | 0.00 | 0.00 | 57 | 935.5 |
| 20260504033201 | 11 | 170 | 4.8 | 6.4 | 0.00 | 0.00 | 0.00 | 57 | 935.8 |
| 20260504033101 | 11 | 154 | 4.8 | 6.4 | 0.00 | 0.00 | 0.00 | 57 | 935.6 |
| 20260504033001 | 11 | 173 | 4.8 | 6.4 | 0.00 | 0.00 | 0.00 | 57 | 935.7 |
| 20260504032901 | 11 | 124 | 6.4 | 6.4 | 0.00 | 0.00 | 0.00 | 57 | 935.5 |
| 20260504032801 | 11 | 144 | 6.4 | 6.4 | 0.00 | 0.00 | 0.00 | 57 | 935.6 |
| 20260504032701 | 11 | 147 | 4.8 | 8.0 | 0.00 | 0.00 | 0.00 | 57 | 935.3 |
| 20260504032601 | 11 | 156 | 4.8 | 8.0 | 0.00 | 0.00 | 0.00 | 56 | 935.4 |
| 20260504032501 | 11 | 156 | 6.4 | 6.4 | 0.00 | 0.00 | 0.00 | 57 | 935.6 |
| 20260504032401 | 11 | 159 | 4.8 | 6.4 | 0.00 | 0.00 | 0.00 | 56 | 935.6 |
| 20260504032300 | 11 | 146 | 4.8 | 8.0 | 0.00 | 0.00 | 0.00 | 57 | 935.7 |
| 20260504032201 | 11 | 144 | 6.4 | 8.0 | 0.00 | 0.00 | 0.00 | 56 | 935.5 |
| 20260504032105 | 11 | 148 | 6.4 | 8.0 | 0.00 | 0.00 | 0.00 | 57 | 935.4 |
| 20260504032001 | 11 | 154 | 6.4 | 8.0 | 0.00 | 0.00 | 0.00 | 56 | 935.7 |
| 20260504031901 | 11 | 150 | 4.8 | 8.0 | 0.00 | 0.00 | 0.00 | 56 | 935.6 |
| 20260504031801 | 11 | 156 | 4.8 | 8.0 | 0.00 | 0.00 | 0.00 | 56 | 935.4 |
| 20260504031702 | 11 | 135 | 6.4 | 8.0 | 0.00 | 0.00 | 0.00 | 56 | 935.5 |
| 20260504031601 | 11 | 164 | 6.4 | 8.0 | 0.00 | 0.00 | 0.00 | 56 | 935.5 |
| 20260504031501 | 11 | 148 | 4.8 | 8.0 | 0.00 | 0.00 | 0.00 | 56 | 935.6 |
| 20260504031401 | 11 | 145 | 6.4 | 8.0 | 0.00 | 0.00 | 0.00 | 56 | 935.5 |
| 20260504031300 | 11 | 141 | 6.4 | 8.0 | 0.00 | 0.00 | 0.00 | 56 | 935.6 |
| 20260504031201 | 11 | 136 | 6.4 | 8.0 | 0.00 | 0.00 | 0.00 | 56 | 935.3 |
| 20260504031101 | 11 | 167 | 6.4 | 8.0 | 0.00 | 0.00 | 0.00 | 56 | 935.6 |
| 20260504031001 | 11 | 164 | 4.8 | 8.0 | 0.00 | 0.00 | 0.00 | 56 | 935.4 |
| 20260504030901 | 11 | 145 | 4.8 | 8.0 | 0.00 | 0.00 | 0.00 | 56 | 935.4 |
| 20260504030801 | 11 | 161 | 6.4 | 8.0 | 0.00 | 0.00 | 0.00 | 56 | 935.5 |
| 20260504030701 | 11 | 151 | 8.0 | 8.0 | 0.00 | 0.00 | 0.00 | 56 | 935.6 |
| 20260504030601 | 11 | 168 | 6.4 | 9.7 | 0.00 | 0.00 | 0.00 | 55 | 935.5 |
| 20260504030501 | 11 | 152 | 6.4 | 9.7 | 0.00 | 0.00 | 0.00 | 56 | 935.4 |
| 20260504030401 | 11 | 128 | 6.4 | 8.0 | 0.00 | 0.00 | 0.00 | 56 | 935.5 |
| 20260504030301 | 11 | 169 | 6.4 | 8.0 | 0.00 | 0.00 | 0.00 | 55 | 935.5 |
| 20260504030201 | 11 | 141 | 6.4 | 9.7 | 0.00 | 0.00 | 0.00 | 55 | 935.6 |
| 20260504030001 | 11 | 167 | 8.0 | 9.7 | 0.00 | 0.00 | 0.00 | 56 | 935.4 |
| 20260504025901 | 11 | 167 | 8.0 | 9.7 | 0.00 | 0.00 | 0.00 | 56 | 935.4 |
| 20260504025800 | 11 | 152 | 6.4 | 8.0 | 0.00 | 0.00 | 0.00 | 55 | 935.6 |
| 20260504025701 | 11 | 154 | 6.4 | 8.0 | 0.00 | 0.00 | 0.00 | 55 | 935.5 |
| 20260504025601 | 11 | 125 | 6.4 | 8.0 | 0.00 | 0.00 | 0.00 | 55 | 935.5 |
| 20260504025501 | 11 | 149 | 6.4 | 8.0 | 0.00 | 0.00 | 0.00 | 55 | 935.5 |
| 20260504025401 | 11 | 158 | 6.4 | 9.7 | 0.00 | 0.00 | 0.00 | 55 | 935.5 |
| 20260504025301 | 11 | 150 | 8.0 | 9.7 | 0.00 | 0.00 | 0.00 | 55 | 935.4 |
| 20260504025201 | 11 | 146 | 8.0 | 9.7 | 0.00 | 0.00 | 0.00 | 55 | 935.5 |
| 20260504025101 | 11 | 141 | 6.4 | 8.0 | 0.00 | 0.00 | 0.00 | 55 | 935.6 |
| 20260504025002 | 11 | 152 | 6.4 | 8.0 | 0.00 | 0.00 | 0.00 | 55 | 935.7 |
| 20260504024901 | 11 | 150 | 6.4 | 9.7 | 0.00 | 0.00 | 0.00 | 55 | 935.6 |
| 20260504024804 | 11 | 144 | 4.8 | 8.0 | 0.00 | 0.00 | 0.00 | 55 | 935.8 |
| 20260504024701 | 11 | 141 | 4.8 | 8.0 | 0.00 | 0.00 | 0.00 | 55 | 935.4 |
| 20260504024601 | 11 | 151 | 6.4 | 8.0 | 0.00 | 0.00 | 0.00 | 55 | 935.6 |
| 20260504024502 | 11 | 161 | 6.4 | 6.4 | 0.00 | 0.00 | 0.00 | 55 | 935.5 |
| 20260504024401 | 11 | 138 | 4.8 | 6.4 | 0.00 | 0.00 | 0.00 | 55 | 935.4 |
| 20260504024301 | 11 | 145 | 4.8 | 8.0 | 0.00 | 0.00 | 0.00 | 55 | 935.8 |
| 20260504024202 | 11 | 154 | 6.4 | 8.0 | 0.00 | 0.00 | 0.00 | 55 | 935.8 |
| 20260504024102 | 11 | 175 | 8.0 | 8.0 | 0.00 | 0.00 | 0.00 | 55 | 935.6 |
| 20260504024001 | 11 | 159 | 4.8 | 8.0 | 0.00 | 0.00 | 0.00 | 54 | 935.7 |
| 20260504023902 | 11 | 157 | 6.4 | 8.0 | 0.00 | 0.00 | 0.00 | 54 | 935.4 |
| 20260504023801 | 11 | 149 | 6.4 | 8.0 | 0.00 | 0.00 | 0.00 | 55 | 935.7 |
| 20260504023701 | 11 | 167 | 6.4 | 8.0 | 0.00 | 0.00 | 0.00 | 55 | 935.5 |
| 20260504023602 | 11 | 154 | 6.4 | 8.0 | 0.00 | 0.00 | 0.00 | 55 | 935.5 |
| 20260504023501 | 11 | 145 | 6.4 | 8.0 | 0.00 | 0.00 | 0.00 | 55 | 935.6 |
| 20260504023401 | 11 | 140 | 6.4 | 6.4 | 0.00 | 0.00 | 0.00 | 55 | 935.6 |
| 20260504023302 | 11 | 161 | 6.4 | 6.4 | 0.00 | 0.00 | 0.00 | 55 | 935.6 |
| 20260504023201 | 11 | 153 | 4.8 | 6.4 | 0.00 | 0.00 | 0.00 | 55 | 935.6 |
| 20260504023101 | 12 | 159 | 6.4 | 6.4 | 0.00 | 0.00 | 0.00 | 54 | 935.6 |
| 20260504023001 | 12 | 163 | 4.8 | 8.0 | 0.00 | 0.00 | 0.00 | 54 | 935.5 |
| 20260504022901 | 12 | 150 | 6.4 | 8.0 | 0.00 | 0.00 | 0.00 | 54 | 935.7 |
| 20260504022801 | 12 | 154 | 6.4 | 8.0 | 0.00 | 0.00 | 0.00 | 54 | 935.6 |
| 20260504022700 | 12 | 159 | 6.4 | 8.0 | 0.00 | 0.00 | 0.00 | 54 | 935.7 |
| 20260504022601 | 11 | 148 | 6.4 | 8.0 | 0.00 | 0.00 | 0.00 | 54 | 935.7 |
| 20260504022501 | 11 | 164 | 6.4 | 8.0 | 0.00 | 0.00 | 0.00 | 54 | 935.5 |
| 20260504022401 | 11 | 150 | 6.4 | 8.0 | 0.00 | 0.00 | 0.00 | 55 | 935.6 |
| 20260504022301 | 12 | 165 | 4.8 | 6.4 | 0.00 | 0.00 | 0.00 | 54 | 935.7 |
| 20260504022202 | 12 | 129 | 6.4 | 8.0 | 0.00 | 0.00 | 0.00 | 54 | 935.6 |
| 20260504022101 | 12 | 145 | 6.4 | 8.0 | 0.00 | 0.00 | 0.00 | 54 | 935.5 |
| 20260504022000 | 12 | 152 | 6.4 | 8.0 | 0.00 | 0.00 | 0.00 | 54 | 935.7 |
| 20260504021901 | 12 | 156 | 6.4 | 8.0 | 0.00 | 0.00 | 0.00 | 54 | 935.7 |
| 20260504021801 | 12 | 144 | 4.8 | 6.4 | 0.00 | 0.00 | 0.00 | 54 | 935.5 |
| 20260504021701 | 12 | 187 | 4.8 | 8.0 | 0.00 | 0.00 | 0.00 | 54 | 935.6 |
| 20260504021602 | 12 | 155 | 6.4 | 8.0 | 0.00 | 0.00 | 0.00 | 54 | 935.5 |
| 20260504021500 | 12 | 138 | 6.4 | 8.0 | 0.00 | 0.00 | 0.00 | 54 | 935.6 |
| 20260504021401 | 12 | 138 | 6.4 | 8.0 | 0.00 | 0.00 | 0.00 | 54 | 935.5 |
| 20260504021301 | 12 | 148 | 6.4 | 8.0 | 0.00 | 0.00 | 0.00 | 54 | 935.7 |
| 20260504021201 | 12 | 143 | 6.4 | 8.0 | 0.00 | 0.00 | 0.00 | 54 | 935.7 |
| 20260504021101 | 12 | 161 | 4.8 | 8.0 | 0.00 | 0.00 | 0.00 | 54 | 935.4 |
| 20260504021001 | 12 | 154 | 6.4 | 8.0 | 0.00 | 0.00 | 0.00 | 53 | 935.8 |
| 20260504020901 | 12 | 129 | 6.4 | 8.0 | 0.00 | 0.00 | 0.00 | 54 | 935.5 |
| 20260504020801 | 12 | 132 | 6.4 | 8.0 | 0.00 | 0.00 | 0.00 | 54 | 935.4 |
| 20260504020700 | 12 | 120 | 6.4 | 6.4 | 0.00 | 0.00 | 0.00 | 53 | 935.5 |
| 20260504020601 | 12 | 145 | 4.8 | 9.7 | 0.00 | 0.00 | 0.00 | 53 | 935.8 |
| 20260504020501 | 12 | 163 | 8.0 | 9.7 | 0.00 | 0.00 | 0.00 | 53 | 935.6 |
| 20260504020401 | 12 | 150 | 8.0 | 9.7 | 0.00 | 0.00 | 0.00 | 53 | 935.5 |
| 20260504020301 | 12 | 143 | 6.4 | 8.0 | 0.00 | 0.00 | 0.00 | 53 | 935.7 |
| 20260504020201 | 12 | 142 | 6.4 | 9.7 | 0.00 | 0.00 | 0.00 | 53 | 935.7 |
| 20260504020001 | 12 | 147 | 4.8 | 8.0 | 0.00 | 0.00 | 0.00 | 54 | 935.7 |
| 20260504015901 | 12 | 148 | 4.8 | 6.4 | 0.00 | 0.00 | 0.00 | 54 | 935.8 |
| 20260504015801 | 12 | 148 | 4.8 | 6.4 | 0.00 | 0.00 | 0.00 | 54 | 935.8 |
| 20260504015701 | 12 | 146 | 4.8 | 6.4 | 0.00 | 0.00 | 0.00 | 54 | 935.7 |
| 20260504015600 | 12 | 143 | 6.4 | 6.4 | 0.00 | 0.00 | 0.00 | 53 | 935.6 |
| 20260504015501 | 12 | 132 | 4.8 | 8.0 | 0.00 | 0.00 | 0.00 | 53 | 935.7 |
| 20260504015401 | 12 | 152 | 4.8 | 6.4 | 0.00 | 0.00 | 0.00 | 54 | 935.8 |
| 20260504015301 | 12 | 120 | 4.8 | 4.8 | 0.00 | 0.00 | 0.00 | 54 | 935.7 |
| 20260504015201 | 12 | 151 | 4.8 | 4.8 | 0.00 | 0.00 | 0.00 | 53 | 935.9 |
| 20260504015101 | 12 | 167 | 4.8 | 6.4 | 0.00 | 0.00 | 0.00 | 53 | 935.9 |
| 20260504015001 | 12 | 148 | 4.8 | 6.4 | 0.00 | 0.00 | 0.00 | 53 | 935.9 |
| 20260504014901 | 12 | 154 | 4.8 | 6.4 | 0.00 | 0.00 | 0.00 | 53 | 935.7 |
| 20260504014801 | 12 | 132 | 4.8 | 6.4 | 0.00 | 0.00 | 0.00 | 53 | 935.8 |
| 20260504014701 | 12 | 160 | 4.8 | 6.4 | 0.00 | 0.00 | 0.00 | 53 | 935.8 |
| 20260504014600 | 12 | 150 | 6.4 | 6.4 | 0.00 | 0.00 | 0.00 | 53 | 935.8 |
| 20260504014501 | 12 | 147 | 4.8 | 6.4 | 0.00 | 0.00 | 0.00 | 53 | 935.6 |
| 20260504014401 | 12 | 134 | 4.8 | 6.4 | 0.00 | 0.00 | 0.00 | 53 | 935.8 |
| 20260504014300 | 12 | 153 | 4.8 | 6.4 | 0.00 | 0.00 | 0.00 | 53 | 935.5 |
| 20260504014201 | 12 | 139 | 4.8 | 6.4 | 0.00 | 0.00 | 0.00 | 53 | 935.8 |
| 20260504014100 | 12 | 170 | 6.4 | 8.0 | 0.00 | 0.00 | 0.00 | 53 | 935.8 |
| 20260504014002 | 12 | 116 | 6.4 | 8.0 | 0.00 | 0.00 | 0.00 | 53 | 935.7 |
| 20260504013902 | 12 | 149 | 6.4 | 8.0 | 0.00 | 0.00 | 0.00 | 53 | 935.8 |
| 20260504013801 | 12 | 156 | 4.8 | 6.4 | 0.00 | 0.00 | 0.00 | 52 | 935.5 |
| 20260504013702 | 12 | 138 | 4.8 | 8.0 | 0.00 | 0.00 | 0.00 | 52 | 935.7 |
| 20260504013601 | 12 | 132 | 4.8 | 8.0 | 0.00 | 0.00 | 0.00 | 53 | 935.8 |
| 20260504013501 | 12 | 154 | 6.4 | 8.0 | 0.00 | 0.00 | 0.00 | 53 | 935.8 |
| 20260504013401 | 12 | 158 | 6.4 | 6.4 | 0.00 | 0.00 | 0.00 | 52 | 935.8 |
| 20260504013301 | 12 | 138 | 4.8 | 6.4 | 0.00 | 0.00 | 0.00 | 52 | 935.7 |
| 20260504013201 | 12 | 145 | 4.8 | 8.0 | 0.00 | 0.00 | 0.00 | 52 | 935.7 |
| 20260504013101 | 12 | 148 | 6.4 | 8.0 | 0.00 | 0.00 | 0.00 | 53 | 935.8 |
| 20260504013001 | 12 | 147 | 4.8 | 6.4 | 0.00 | 0.00 | 0.00 | 53 | 935.7 |
| 20260504012901 | 12 | 139 | 4.8 | 6.4 | 0.00 | 0.00 | 0.00 | 53 | 935.7 |
| 20260504012801 | 12 | 155 | 4.8 | 6.4 | 0.00 | 0.00 | 0.00 | 53 | 935.7 |
| 20260504012701 | 12 | 114 | 4.8 | 6.4 | 0.00 | 0.00 | 0.00 | 52 | 935.8 |
| 20260504012601 | 12 | 110 | 4.8 | 6.4 | 0.00 | 0.00 | 0.00 | 53 | 935.7 |
| 20260504012501 | 12 | 130 | 6.4 | 8.0 | 0.00 | 0.00 | 0.00 | 52 | 935.9 |
| 20260504012401 | 12 | 154 | 6.4 | 8.0 | 0.00 | 0.00 | 0.00 | 52 | 935.7 |
| 20260504012301 | 12 | 139 | 4.8 | 8.0 | 0.00 | 0.00 | 0.00 | 52 | 935.8 |
| 20260504012201 | 12 | 146 | 6.4 | 8.0 | 0.00 | 0.00 | 0.00 | 52 | 935.7 |
| 20260504012101 | 12 | 152 | 4.8 | 6.4 | 0.00 | 0.00 | 0.00 | 52 | 935.8 |
| 20260504012001 | 12 | 147 | 4.8 | 8.0 | 0.00 | 0.00 | 0.00 | 52 | 935.7 |
| 20260504011901 | 12 | 139 | 6.4 | 8.0 | 0.00 | 0.00 | 0.00 | 52 | 935.8 |
| 20260504011801 | 12 | 149 | 6.4 | 6.4 | 0.00 | 0.00 | 0.00 | 52 | 935.6 |
| 20260504011701 | 12 | 141 | 4.8 | 6.4 | 0.00 | 0.00 | 0.00 | 52 | 935.7 |
| 20260504011601 | 12 | 158 | 4.8 | 8.0 | 0.00 | 0.00 | 0.00 | 52 | 935.8 |
| 20260504011501 | 12 | 136 | 6.4 | 8.0 | 0.00 | 0.00 | 0.00 | 52 | 935.8 |
| 20260504011401 | 12 | 144 | 4.8 | 6.4 | 0.00 | 0.00 | 0.00 | 52 | 935.7 |
| 20260504011301 | 12 | 142 | 4.8 | 8.0 | 0.00 | 0.00 | 0.00 | 52 | 935.6 |
| 20260504011201 | 12 | 126 | 6.4 | 8.0 | 0.00 | 0.00 | 0.00 | 52 | 935.6 |
| 20260504011101 | 12 | 125 | 6.4 | 8.0 | 0.00 | 0.00 | 0.00 | 52 | 935.8 |
| 20260504011001 | 12 | 152 | 4.8 | 8.0 | 0.00 | 0.00 | 0.00 | 52 | 935.8 |
| 20260504010901 | 12 | 138 | 6.4 | 8.0 | 0.00 | 0.00 | 0.00 | 51 | 935.7 |
| 20260504010802 | 12 | 150 | 4.8 | 6.4 | 0.00 | 0.00 | 0.00 | 51 | 935.7 |
| 20260504010702 | 12 | 127 | 4.8 | 9.7 | 0.00 | 0.00 | 0.00 | 51 | 935.7 |
| 20260504010601 | 12 | 175 | 6.4 | 9.7 | 0.00 | 0.00 | 0.00 | 52 | 935.6 |
| 20260504010501 | 12 | 145 | 4.8 | 6.4 | 0.00 | 0.00 | 0.00 | 51 | 935.8 |
| 20260504010401 | 12 | 136 | 4.8 | 9.7 | 0.00 | 0.00 | 0.00 | 51 | 935.9 |
| 20260504010301 | 12 | 132 | 4.8 | 9.7 | 0.00 | 0.00 | 0.00 | 52 | 935.7 |
| 20260504010200 | 12 | 125 | 4.8 | 8.0 | 0.00 | 0.00 | 0.00 | 52 | 935.8 |
| 20260504010101 | 12 | 155 | 4.8 | 8.0 | 0.00 | 0.00 | 0.00 | 51 | 935.8 |
| 20260504010001 | 12 | 146 | 3.2 | 4.8 | 0.00 | 0.00 | 0.00 | 51 | 935.7 |
| 20260504005901 | 12 | 144 | 4.8 | 9.7 | 0.00 | 0.00 | 0.00 | 51 | 935.7 |
| 20260504005800 | 12 | 138 | 8.0 | 9.7 | 0.00 | 0.00 | 0.00 | 51 | 935.6 |
| 20260504005701 | 12 | 138 | 8.0 | 9.7 | 0.00 | 0.00 | 0.00 | 51 | 935.6 |
| 20260504005601 | 12 | 151 | 4.8 | 6.4 | 0.00 | 0.00 | 0.00 | 51 | 935.6 |
| 20260504005501 | 12 | 140 | 4.8 | 6.4 | 0.00 | 0.00 | 0.00 | 51 | 935.8 |
| 20260504005401 | 12 | 131 | 4.8 | 8.0 | 0.00 | 0.00 | 0.00 | 51 | 935.7 |
| 20260504005302 | 12 | 140 | 4.8 | 8.0 | 0.00 | 0.00 | 0.00 | 51 | 935.6 |
| 20260504005201 | 12 | 154 | 6.4 | 8.0 | 0.00 | 0.00 | 0.00 | 51 | 935.7 |
| 20260504005101 | 12 | 132 | 4.8 | 6.4 | 0.00 | 0.00 | 0.00 | 51 | 935.8 |
| 20260504005000 | 12 | 138 | 4.8 | 8.0 | 0.00 | 0.00 | 0.00 | 51 | 935.8 |
| 20260504004901 | 12 | 142 | 8.0 | 8.0 | 0.00 | 0.00 | 0.00 | 51 | 935.6 |
| 20260504004801 | 12 | 140 | 4.8 | 6.4 | 0.00 | 0.00 | 0.00 | 51 | 935.8 |
| 20260504004701 | 12 | 139 | 6.4 | 6.4 | 0.00 | 0.00 | 0.00 | 51 | 935.8 |
| 20260504004602 | 12 | 142 | 3.2 | 6.4 | 0.00 | 0.00 | 0.00 | 51 | 935.9 |
| 20260504004500 | 12 | 145 | 4.8 | 6.4 | 0.00 | 0.00 | 0.00 | 51 | 935.9 |
| 20260504004401 | 12 | 123 | 4.8 | 6.4 | 0.00 | 0.00 | 0.00 | 51 | 936.1 |
| 20260504004301 | 12 | 176 | 4.8 | 6.4 | 0.00 | 0.00 | 0.00 | 51 | 935.6 |
| 20260504004200 | 12 | 168 | 6.4 | 6.4 | 0.00 | 0.00 | 0.00 | 50 | 935.9 |
| 20260504004101 | 12 | 118 | 4.8 | 9.7 | 0.00 | 0.00 | 0.00 | 50 | 935.9 |
| 20260504004001 | 12 | 152 | 8.0 | 9.7 | 0.00 | 0.00 | 0.00 | 51 | 935.8 |
| 20260504003901 | 13 | 131 | 4.8 | 6.4 | 0.00 | 0.00 | 0.00 | 50 | 935.7 |
| 20260504003801 | 13 | 136 | 4.8 | 6.4 | 0.00 | 0.00 | 0.00 | 50 | 935.8 |
| 20260504003701 | 12 | 124 | 4.8 | 9.7 | 0.00 | 0.00 | 0.00 | 50 | 935.8 |
| 20260504003601 | 12 | 143 | 8.0 | 9.7 | 0.00 | 0.00 | 0.00 | 50 | 935.9 |
| 20260504003502 | 12 | 128 | 6.4 | 8.0 | 0.00 | 0.00 | 0.00 | 50 | 935.8 |
| 20260504003401 | 12 | 129 | 4.8 | 8.0 | 0.00 | 0.00 | 0.00 | 50 | 935.7 |
| 20260504003301 | 12 | 151 | 6.4 | 8.0 | 0.00 | 0.00 | 0.00 | 51 | 935.7 |
| 20260504003201 | 13 | 138 | 4.8 | 6.4 | 0.00 | 0.00 | 0.00 | 51 | 935.8 |
| 20260504003101 | 13 | 169 | 4.8 | 8.0 | 0.00 | 0.00 | 0.00 | 50 | 935.9 |
| 20260504003001 | 13 | 165 | 4.8 | 8.0 | 0.00 | 0.00 | 0.00 | 50 | 935.6 |
| 20260504002901 | 13 | 139 | 4.8 | 6.4 | 0.00 | 0.00 | 0.00 | 50 | 935.8 |
| 20260504002801 | 13 | 164 | 4.8 | 6.4 | 0.00 | 0.00 | 0.00 | 50 | 936.0 |
| 20260504002701 | 13 | 182 | 4.8 | 6.4 | 0.00 | 0.00 | 0.00 | 50 | 935.8 |
| 20260504002601 | 13 | 143 | 6.4 | 6.4 | 0.00 | 0.00 | 0.00 | 50 | 935.7 |
| 20260504002501 | 13 | 149 | 4.8 | 8.0 | 0.00 | 0.00 | 0.00 | 50 | 935.9 |
| 20260504002401 | 13 | 146 | 6.4 | 8.0 | 0.00 | 0.00 | 0.00 | 50 | 935.9 |
| 20260504002301 | 13 | 155 | 4.8 | 8.0 | 0.00 | 0.00 | 0.00 | 50 | 936.0 |
| 20260504002201 | 13 | 141 | 4.8 | 8.0 | 0.00 | 0.00 | 0.00 | 50 | 935.7 |
| 20260504002101 | 13 | 146 | 6.4 | 8.0 | 0.00 | 0.00 | 0.00 | 50 | 935.8 |
| 20260504002001 | 13 | 182 | 4.8 | 6.4 | 0.00 | 0.00 | 0.00 | 50 | 935.7 |
| 20260504001901 | 13 | 170 | 6.4 | 8.0 | 0.00 | 0.00 | 0.00 | 49 | 935.9 |
| 20260504001801 | 13 | 155 | 4.8 | 9.7 | 0.00 | 0.00 | 0.00 | 49 | 935.7 |
| 20260504001701 | 13 | 170 | 8.0 | 9.7 | 0.00 | 0.00 | 0.00 | 49 | 935.8 |
| 20260504001601 | 13 | 139 | 6.4 | 8.0 | 0.00 | 0.00 | 0.00 | 49 | 935.9 |
| 20260504001501 | 13 | 180 | 6.4 | 8.0 | 0.00 | 0.00 | 0.00 | 49 | 935.8 |
| 20260504001401 | 13 | 188 | 6.4 | 8.0 | 0.00 | 0.00 | 0.00 | 49 | 935.9 |
| 20260504001302 | 13 | 124 | 4.8 | 8.0 | 0.00 | 0.00 | 0.00 | 49 | 935.6 |
| 20260504001201 | 13 | 153 | 4.8 | 6.4 | 0.00 | 0.00 | 0.00 | 49 | 935.7 |
| 20260504001101 | 13 | 174 | 6.4 | 8.0 | 0.00 | 0.00 | 0.00 | 49 | 935.9 |
| 20260504001001 | 13 | 150 | 6.4 | 8.0 | 0.00 | 0.00 | 0.00 | 49 | 935.7 |
| 20260504000900 | 13 | 137 | 4.8 | 9.7 | 0.00 | 0.00 | 0.00 | 49 | 935.7 |
| 20260504000801 | 13 | 160 | 6.4 | 11.3 | 0.00 | 0.00 | 0.00 | 49 | 935.5 |
| 20260504000701 | 13 | 160 | 9.7 | 11.3 | 0.00 | 0.00 | 0.00 | 48 | 935.7 |
| 20260504000601 | 13 | 147 | 6.4 | 9.7 | 0.00 | 0.00 | 0.00 | 49 | 936.0 |
| 20260504000501 | 13 | 148 | 6.4 | 9.7 | 0.00 | 0.00 | 0.00 | 49 | 935.8 |
| 20260504000401 | 13 | 170 | 6.4 | 8.0 | 0.00 | 0.00 | 0.00 | 48 | 935.8 |
| 20260504000301 | 13 | 177 | 6.4 | 9.7 | 0.00 | 0.00 | 0.00 | 48 | 935.8 |
| 20260504000201 | 13 | 121 | 6.4 | 9.7 | 0.00 | 0.00 | 0.00 | 49 | 935.8 |
| 20260504000101 | 13 | 161 | 6.4 | 8.0 | 0.00 | 0.00 | 0.00 | 48 | 935.8 |
| 20260504000002 | 13 | 164 | 6.4 | 9.7 | 0.00 | 0.00 | 0.00 | 48 | 935.8 |
| 20260503235901 | 13 | 163 | 6.4 | 9.7 | 0.00 | 0.00 | 0.00 | 48 | 935.7 |
| 20260503235801 | 13 | 144 | 6.4 | 12.9 | 0.00 | 0.00 | 0.00 | 48 | 935.8 |
| 20260503235700 | 13 | 150 | 6.4 | 12.9 | 0.00 | 0.00 | 0.00 | 48 | 935.9 |
| 20260503235601 | 13 | 150 | 6.4 | 12.9 | 0.00 | 0.00 | 0.00 | 48 | 935.9 |
| 20260503235500 | 13 | 175 | 8.0 | 9.7 | 0.00 | 0.00 | 0.00 | 49 | 935.7 |
| 20260503235401 | 13 | 154 | 6.4 | 9.7 | 0.00 | 0.00 | 0.00 | 48 | 935.8 |
| 20260503235301 | 13 | 156 | 6.4 | 8.0 | 0.00 | 0.00 | 0.00 | 48 | 935.9 |
| 20260503235202 | 13 | 163 | 6.4 | 8.0 | 0.00 | 0.00 | 0.00 | 48 | 935.9 |
| 20260503235106 | 13 | 171 | 8.0 | 12.9 | 0.00 | 0.00 | 0.00 | 48 | 935.8 |
| 20260503235001 | 13 | 155 | 6.4 | 12.9 | 0.00 | 0.00 | 0.00 | 48 | 935.8 |
| 20260503234901 | 13 | 141 | 4.8 | 9.7 | 0.00 | 0.00 | 0.00 | 48 | 936.0 |
| 20260503234801 | 13 | 178 | 9.7 | 9.7 | 0.00 | 0.00 | 0.00 | 48 | 936.0 |
| 20260503234701 | 13 | 177 | 6.4 | 9.7 | 0.00 | 0.00 | 0.00 | 48 | 935.9 |
| 20260503234601 | 13 | 162 | 8.0 | 9.7 | 0.00 | 0.00 | 0.00 | 48 | 935.8 |
| 20260503234501 | 13 | 150 | 4.8 | 9.7 | 0.00 | 0.00 | 0.00 | 48 | 936.1 |
| 20260503234400 | 13 | 171 | 6.4 | 6.4 | 0.00 | 0.00 | 0.00 | 48 | 936.1 |
| 20260503234300 | 13 | 137 | 4.8 | 9.7 | 0.00 | 0.00 | 0.00 | 48 | 936.0 |
| 20260503234201 | 13 | 186 | 6.4 | 11.3 | 0.00 | 0.00 | 0.00 | 48 | 936.0 |
| 20260503234101 | 13 | 148 | 4.8 | 9.7 | 0.00 | 0.00 | 0.00 | 48 | 936.0 |
| 20260503234001 | 13 | 178 | 8.0 | 9.7 | 0.00 | 0.00 | 0.00 | 48 | 936.0 |
| 20260503233901 | 13 | 148 | 8.0 | 9.7 | 0.00 | 0.00 | 0.00 | 48 | 936.0 |
| 20260503233800 | 13 | 187 | 6.4 | 9.7 | 0.00 | 0.00 | 0.00 | 48 | 935.8 |
| 20260503233701 | 13 | 181 | 6.4 | 9.7 | 0.00 | 0.00 | 0.00 | 48 | 936.1 |
| 20260503233600 | 13 | 163 | 8.0 | 9.7 | 0.00 | 0.00 | 0.00 | 48 | 936.1 |
| 20260503233501 | 13 | 138 | 6.4 | 9.7 | 0.00 | 0.00 | 0.00 | 48 | 936.0 |
| 20260503233400 | 13 | 172 | 6.4 | 9.7 | 0.00 | 0.00 | 0.00 | 48 | 935.9 |
| 20260503233301 | 13 | 145 | 4.8 | 9.7 | 0.00 | 0.00 | 0.00 | 48 | 935.9 |
| 20260503233200 | 13 | 164 | 6.4 | 9.7 | 0.00 | 0.00 | 0.00 | 48 | 936.0 |
| 20260503233102 | 13 | 159 | 6.4 | 9.7 | 0.00 | 0.00 | 0.00 | 48 | 935.9 |
| 20260503233001 | 13 | 156 | 8.0 | 11.3 | 0.00 | 0.00 | 0.00 | 48 | 936.0 |
| 20260503232900 | 13 | 183 | 8.0 | 11.3 | 0.00 | 0.00 | 0.00 | 48 | 936.0 |
| 20260503232801 | 13 | 185 | 4.8 | 8.0 | 0.00 | 0.00 | 0.00 | 48 | 936.0 |
| 20260503232701 | 13 | 159 | 8.0 | 9.7 | 0.00 | 0.00 | 0.00 | 48 | 936.0 |
| 20260503232601 | 13 | 143 | 8.0 | 9.7 | 0.00 | 0.00 | 0.00 | 48 | 935.9 |
| 20260503232501 | 13 | 156 | 6.4 | 9.7 | 0.00 | 0.00 | 0.00 | 48 | 936.0 |
| 20260503232405 | 13 | 166 | 6.4 | 8.0 | 0.00 | 0.00 | 0.00 | 48 | 935.9 |
| 20260503232301 | 13 | 156 | 6.4 | 8.0 | 0.00 | 0.00 | 0.00 | 48 | 936.0 |
| 20260503232201 | 13 | 165 | 6.4 | 11.3 | 0.00 | 0.00 | 0.00 | 48 | 936.2 |
| 20260503232101 | 13 | 157 | 6.4 | 12.9 | 0.00 | 0.00 | 0.00 | 48 | 935.9 |
| 20260503232001 | 13 | 165 | 4.8 | 8.0 | 0.00 | 0.00 | 0.00 | 48 | 935.9 |
| 20260503231901 | 13 | 131 | 6.4 | 9.7 | 0.00 | 0.00 | 0.00 | 48 | 935.9 |
| 20260503231801 | 13 | 179 | 8.0 | 9.7 | 0.00 | 0.00 | 0.00 | 48 | 935.9 |
| 20260503231701 | 13 | 174 | 6.4 | 11.3 | 0.00 | 0.00 | 0.00 | 48 | 935.9 |
| 20260503231600 | 13 | 142 | 8.0 | 9.7 | 0.00 | 0.00 | 0.00 | 48 | 935.8 |
| 20260503231500 | 13 | 166 | 8.0 | 8.0 | 0.00 | 0.00 | 0.00 | 48 | 936.1 |
| 20260503231400 | 13 | 187 | 6.4 | 9.7 | 0.00 | 0.00 | 0.00 | 48 | 936.0 |
| 20260503231300 | 13 | 129 | 6.4 | 11.3 | 0.00 | 0.00 | 0.00 | 48 | 936.0 |
| 20260503231201 | 13 | 161 | 8.0 | 9.7 | 0.00 | 0.00 | 0.00 | 48 | 936.0 |
| 20260503231101 | 13 | 180 | 6.4 | 11.3 | 0.00 | 0.00 | 0.00 | 48 | 935.8 |
| 20260503231007 | 13 | 169 | 8.0 | 11.3 | 0.00 | 0.00 | 0.00 | 48 | 935.9 |
| 20260503230901 | 13 | 179 | 4.8 | 11.3 | 0.00 | 0.00 | 0.00 | 48 | 935.9 |
| 20260503230801 | 13 | 165 | 8.0 | 9.7 | 0.00 | 0.00 | 0.00 | 48 | 936.1 |
| 20260503230701 | 13 | 175 | 4.8 | 8.0 | 0.00 | 0.00 | 0.00 | 48 | 935.9 |
| 20260503230601 | 13 | 160 | 6.4 | 11.3 | 0.00 | 0.00 | 0.00 | 48 | 935.8 |
| 20260503230501 | 13 | 164 | 8.0 | 12.9 | 0.00 | 0.00 | 0.00 | 48 | 936.1 |
| 20260503230401 | 13 | 126 | 11.3 | 12.9 | 0.00 | 0.00 | 0.00 | 48 | 936.0 |
| 20260503230301 | 13 | 160 | 6.4 | 9.7 | 0.00 | 0.00 | 0.00 | 48 | 935.8 |
| 20260503230201 | 14 | 185 | 6.4 | 11.3 | 0.00 | 0.00 | 0.00 | 48 | 936.1 |
| 20260503230001 | 13 | 172 | 6.4 | 11.3 | 0.00 | 0.00 | 0.00 | 48 | 935.7 |
| 20260503225901 | 14 | 165 | 8.0 | 9.7 | 0.00 | 0.00 | 0.00 | 48 | 936.3 |
| 20260503225801 | 14 | 152 | 8.0 | 9.7 | 0.00 | 0.00 | 0.00 | 48 | 935.9 |
| 20260503225701 | 14 | 167 | 8.0 | 11.3 | 0.00 | 0.00 | 0.00 | 48 | 936.0 |
| 20260503225601 | 14 | 130 | 8.0 | 12.9 | 0.00 | 0.00 | 0.00 | 47 | 936.0 |
| 20260503225501 | 14 | 130 | 8.0 | 12.9 | 0.00 | 0.00 | 0.00 | 47 | 936.0 |
| 20260503225401 | 14 | 150 | 8.0 | 12.9 | 0.00 | 0.00 | 0.00 | 47 | 935.9 |
| 20260503225302 | 14 | 141 | 9.7 | 12.9 | 0.00 | 0.00 | 0.00 | 47 | 936.0 |
| 20260503225202 | 14 | 168 | 8.0 | 11.3 | 0.00 | 0.00 | 0.00 | 47 | 935.8 |
| 20260503225101 | 14 | 154 | 8.0 | 9.7 | 0.00 | 0.00 | 0.00 | 47 | 935.7 |
| 20260503225001 | 14 | 146 | 4.8 | 11.3 | 0.00 | 0.00 | 0.00 | 48 | 935.9 |
| 20260503224901 | 14 | 148 | 6.4 | 11.3 | 0.00 | 0.00 | 0.00 | 48 | 935.9 |
| 20260503224802 | 14 | 156 | 8.0 | 11.3 | 0.00 | 0.00 | 0.00 | 48 | 936.0 |
| 20260503224701 | 14 | 171 | 6.4 | 9.7 | 0.00 | 0.00 | 0.00 | 48 | 936.0 |
| 20260503224601 | 14 | 137 | 6.4 | 12.9 | 0.00 | 0.00 | 0.00 | 47 | 935.8 |
| 20260503224501 | 14 | 173 | 8.0 | 12.9 | 0.00 | 0.00 | 0.00 | 47 | 936.0 |
| 20260503224401 | 14 | 171 | 6.4 | 11.3 | 0.00 | 0.00 | 0.00 | 48 | 935.9 |
| 20260503224301 | 14 | 145 | 8.0 | 11.3 | 0.00 | 0.00 | 0.00 | 48 | 935.9 |
| 20260503224201 | 14 | 152 | 6.4 | 9.7 | 0.00 | 0.00 | 0.00 | 47 | 936.0 |
| 20260503224101 | 14 | 182 | 8.0 | 12.9 | 0.00 | 0.00 | 0.00 | 47 | 935.9 |
| 20260503224001 | 14 | 187 | 9.7 | 12.9 | 0.00 | 0.00 | 0.00 | 47 | 935.9 |
| 20260503223901 | 14 | 146 | 9.7 | 11.3 | 0.00 | 0.00 | 0.00 | 47 | 935.9 |
| 20260503223800 | 14 | 177 | 8.0 | 12.9 | 0.00 | 0.00 | 0.00 | 47 | 935.7 |
| 20260503223702 | 14 | 156 | 8.0 | 12.9 | 0.00 | 0.00 | 0.00 | 47 | 936.0 |
| 20260503223601 | 14 | 136 | 6.4 | 11.3 | 0.00 | 0.00 | 0.00 | 47 | 935.9 |
| 20260503223501 | 14 | 155 | 8.0 | 11.3 | 0.00 | 0.00 | 0.00 | 47 | 935.9 |
| 20260503223401 | 14 | 162 | 9.7 | 11.3 | 0.00 | 0.00 | 0.00 | 47 | 936.0 |
| 20260503223301 | 14 | 160 | 6.4 | 14.5 | 0.00 | 0.00 | 0.00 | 47 | 935.9 |
| 20260503223201 | 14 | 177 | 12.9 | 14.5 | 0.00 | 0.00 | 0.00 | 47 | 936.0 |
| 20260503223101 | 14 | 171 | 8.0 | 11.3 | 0.00 | 0.00 | 0.00 | 47 | 935.9 |
| 20260503223001 | 14 | 142 | 11.3 | 11.3 | 0.00 | 0.00 | 0.00 | 47 | 936.1 |
| 20260503222901 | 14 | 159 | 8.0 | 11.3 | 0.00 | 0.00 | 0.00 | 47 | 936.0 |
| 20260503222800 | 14 | 159 | 8.0 | 12.9 | 0.00 | 0.00 | 0.00 | 47 | 935.9 |
| 20260503222701 | 14 | 171 | 9.7 | 12.9 | 0.00 | 0.00 | 0.00 | 47 | 935.8 |
| 20260503222601 | 14 | 151 | 8.0 | 12.9 | 0.00 | 0.00 | 0.00 | 47 | 935.9 |
| 20260503222501 | 14 | 153 | 11.3 | 12.9 | 0.00 | 0.00 | 0.00 | 47 | 935.8 |
| 20260503222401 | 14 | 136 | 8.0 | 11.3 | 0.00 | 0.00 | 0.00 | 47 | 936.0 |
| 20260503222301 | 14 | 142 | 8.0 | 9.7 | 0.00 | 0.00 | 0.00 | 47 | 936.2 |
| 20260503222201 | 14 | 161 | 6.4 | 11.3 | 0.00 | 0.00 | 0.00 | 47 | 936.0 |
| 20260503222101 | 14 | 146 | 8.0 | 11.3 | 0.00 | 0.00 | 0.00 | 47 | 936.0 |
| 20260503222001 | 14 | 130 | 6.4 | 9.7 | 0.00 | 0.00 | 0.00 | 47 | 936.0 |
| 20260503221900 | 14 | 128 | 6.4 | 12.9 | 0.00 | 0.00 | 0.00 | 47 | 936.0 |
| 20260503221801 | 14 | 149 | 9.7 | 12.9 | 0.00 | 0.00 | 0.00 | 46 | 936.0 |
| 20260503221701 | 14 | 179 | 9.7 | 12.9 | 0.00 | 0.00 | 0.00 | 47 | 936.0 |
| 20260503221601 | 14 | 146 | 8.0 | 12.9 | 0.00 | 0.00 | 0.00 | 46 | 936.1 |
| 20260503221501 | 14 | 155 | 9.7 | 11.3 | 0.00 | 0.00 | 0.00 | 47 | 936.1 |
| 20260503221410 | 14 | 182 | 8.0 | 12.9 | 0.00 | 0.00 | 0.00 | 47 | 936.0 |
| 20260503221301 | 14 | 171 | 11.3 | 14.5 | 0.00 | 0.00 | 0.00 | 47 | 936.0 |
| 20260503221201 | 14 | 158 | 8.0 | 14.5 | 0.00 | 0.00 | 0.00 | 47 | 936.2 |